GFSSE_925_spd_000.txt.gz
Wind_Speed
11 6 8 9 9 8 8 11 9 6 2 1 2 3 5 8 8 7 9 7 6 5 4 5 6 9 9 9 7 5 3 3 1 1 3 1 1 3 5 7 9 6 11
7 5 9 10 9 10 9 9 11 11 7 2 0 1 4 7 12 13 11 10 10 8 17 12 12 13 13 11 7 7 6 5 3 1 1 3 5 6 6 7 10 10 12
7 7 9 11 10 9 7 8 10 10 10 9 5 2 2 4 11 12 13 14 16 23 27 14 15 16 13 12 12 10 8 7 6 4 2 6 6 8 9 11 5 10 11
8 15 10 10 9 9 7 8 9 11 10 9 7 5 1 3 5 6 10 10 19 23 20 20 18 17 13 12 11 10 9 8 7 5 4 6 15 8 8 12 11 10 11
9 11 10 8 9 10 8 7 7 9 9 9 8 8 5 2 1 1 6 17 16 20 16 10 8 18 14 12 10 9 9 9 8 7 5 11 7 10 8 13 14 13 12
10 11 8 8 10 9 9 8 6 6 7 8 8 6 8 5 6 6 4 9 8 12 11 12 15 23 21 11 9 7 7 9 10 9 10 10 10 11 8 9 12 12 17
9 9 6 8 8 8 7 6 5 4 4 6 5 6 6 6 8 7 6 4 6 9 12 9 17 30 27 16 14 10 10 11 10 9 18 14 9 13 9 9 14 12 17
9 7 6 7 8 7 7 4 2 1 1 1 1 2 2 4 4 5 7 7 5 3 4 5 5 13 10 7 6 10 10 10 10 11 15 13 17 15 13 10 15 17 18
6 6 4 2 5 6 7 6 3 1 2 3 2 1 2 1 2 3 4 5 6 4 6 11 9 6 4 4 5 8 10 10 11 12 17 14 11 13 13 13 13 17 21
4 5 3 1 6 5 3 6 6 4 2 1 2 2 1 1 2 2 1 4 4 6 4 6 8 7 2 5 6 6 6 8 11 12 13 10 6 10 11 13 15 18 20
4 5 2 4 3 1 4 3 3 6 5 4 5 4 4 5 3 2 2 2 1 1 2 2 3 2 2 2 7 9 11 12 11 13 14 11 10 10 12 14 17 21 21
5 5 6 5 5 4 5 2 2 3 3 2 3 3 3 3 3 5 1 1 4 6 9 9 5 5 2 5 9 10 11 11 10 15 15 15 15 15 15 17 20 22 23
7 4 5 5 4 3 4 3 1 3 2 3 4 5 3 4 3 2 2 2 3 4 5 7 9 16 18 14 8 9 13 14 10 12 14 18 20 20 19 19 22 23 25
4 3 1 1 3 4 3 5 7 6 5 4 2 2 4 3 4 3 1 1 4 5 6 8 11 13 14 22 20 20 15 20 17 20 21 19 21 23 21 21 24 27 25
4 4 5 6 5 4 4 3 3 6 7 5 3 4 3 3 3 4 2 2 1 3 5 8 11 13 15 13 9 20 20 22 23 19 25 26 26 25 23 22 24 25 27
8 5 6 6 5 4 4 5 7 8 6 4 4 3 2 3 3 1 1 2 3 4 6 7 8 12 16 19 18 18 26 24 26 25 30 23 23 26 30 29 25 26 27
9 7 6 6 6 6 6 7 6 5 5 5 4 3 4 2 2 2 1 1 1 5 7 9 9 9 11 15 18 18 18 23 27 30 29 29 29 26 27 32 34 33 27
7 8 9 8 10 10 10 10 9 8 7 7 7 5 4 5 4 2 1 1 4 3 4 7 10 12 12 12 14 16 17 21 20 23 27 29 30 30 26 24 30 41 39
9 8 10 9 9 10 10 9 10 8 10 10 10 9 7 4 3 3 3 1 3 3 4 5 8 10 12 14 15 16 19 21 24 25 28 26 27 30 28 26 24 27 35
8 9 9 10 11 11 10 11 8 10 12 9 10 12 10 9 5 4 4 2 2 4 3 7 9 11 13 15 14 18 20 22 23 24 26 28 31 34 33 31 29 27 31
9 9 11 12 12 12 12 11 12 12 14 13 14 12 9 10 8 6 4 2 3 4 7 8 9 10 15 16 19 17 15 24 22 27 25 25 31 30 31 32 29 32 28
11 13 14 15 15 15 15 15 17 16 17 20 17 18 15 12 11 9 9 5 5 4 8 11 10 10 12 16 15 18 6 16 19 17 17 18 14 21 29 30 32 30 31
12 14 15 17 18 19 20 19 19 19 17 13 15 12 16 19 17 14 13 10 8 6 8 10 13 16 18 14 16 15 6 5 10 24 22 26 18 21 20 19 21 31 29
14 15 16 18 20 21 20 22 23 19 18 22 24 24 29 26 21 17 13 12 10 8 10 12 12 13 17 18 18 18 23 24 9 11 17 22 25 26 22 23 24 21 25
6 12 16 18 21 23 23 24 26 25 22 21 16 14 11 10 8 7 8 11 12 9 10 12 16 18 19 19 20 19 20 24 23 11 12 11 19 20 21 24 27 24 22
7 7 12 18 23 25 26 27 26 28 24 15 18 7 5 4 4 1 1 3 5 8 10 13 16 18 20 23 24 24 22 17 15 13 10 11 10 19 21 24 25 24 26

GFSSE_925_spd_003.txt.gz
Wind_Speed
11 11 9 9 11 13 14 14 13 10 8 8 8 7 8 11 13 13 14 19 16 14 12 17 14 10 11 10 6 3 4 6 6 3 4 7 11 12 13 17 13 8 11
6 9 10 10 11 13 11 13 15 15 14 10 9 8 9 9 11 12 11 13 12 8 11 18 14 14 11 12 8 5 3 2 4 4 3 3 4 5 7 13 13 11 10
7 8 10 10 10 10 11 11 14 15 16 15 9 8 9 10 11 12 11 10 4 8 21 13 5 12 11 10 10 7 7 6 6 4 5 4 1 3 4 9 10 10 12
16 9 10 10 11 11 10 11 12 14 15 15 13 9 7 7 9 10 12 14 9 10 12 3 2 8 9 11 12 11 10 9 8 6 4 5 5 5 6 10 11 12 12
8 10 10 10 10 11 11 12 13 13 13 12 11 10 7 5 4 2 6 10 7 7 9 9 7 4 7 16 14 12 15 13 10 8 5 7 9 10 7 11 16 15 13
10 11 11 11 11 11 11 11 11 12 11 11 9 8 6 4 4 4 3 8 9 5 7 12 16 3 2 18 7 11 18 18 15 11 9 7 9 11 7 10 15 15 14
11 11 11 10 11 10 10 9 9 9 9 9 9 7 5 5 3 5 6 8 7 7 8 14 14 17 14 18 18 17 24 21 17 14 11 8 14 12 12 11 15 16 18
12 11 10 9 11 11 9 8 6 6 6 6 6 6 5 5 5 6 5 5 5 5 4 4 3 8 10 8 14 19 21 19 16 15 15 15 10 17 15 14 15 17 18
11 5 7 7 11 11 10 9 7 5 4 3 3 3 2 3 4 5 6 4 4 4 5 5 4 4 4 3 7 12 12 13 15 16 14 12 8 18 15 14 15 20 19
14 14 6 5 9 9 7 9 10 8 5 4 3 4 2 2 2 3 4 5 3 3 4 6 8 9 8 7 7 7 8 10 12 14 15 14 7 14 15 16 16 18 23
13 8 3 8 7 5 1 6 7 8 9 9 9 8 5 3 1 2 0 3 4 5 6 6 6 7 7 7 6 7 9 12 12 13 13 13 11 12 16 16 16 17 19
18 12 3 1 4 3 3 4 5 6 7 8 7 7 9 8 5 4 2 2 3 6 5 6 6 7 8 9 10 11 12 14 13 11 14 16 17 14 16 17 18 20 23
13 8 3 1 2 5 3 2 5 5 8 8 7 7 7 7 4 6 4 4 2 2 1 2 4 10 14 16 17 13 10 11 12 12 11 15 18 19 18 19 21 21 25
15 9 5 2 4 6 2 6 6 10 9 9 7 5 2 3 2 5 2 4 2 2 4 6 6 7 8 10 13 17 21 22 18 16 14 18 16 16 17 20 20 22 25
9 12 6 2 4 4 3 4 7 9 9 6 5 6 4 6 4 5 2 2 1 2 5 9 9 11 14 15 14 15 17 18 16 17 26 20 20 24 23 20 20 20 24
4 10 8 3 4 5 6 8 7 8 7 7 6 4 6 6 6 7 5 4 4 4 7 8 10 11 12 14 17 17 18 20 21 21 24 25 27 24 27 27 25 22 24
9 11 8 4 8 8 8 8 8 7 6 7 7 7 6 6 8 6 7 5 4 3 5 6 9 10 11 10 11 14 18 21 24 24 26 27 28 29 27 29 29 30 28
12 11 8 3 8 7 8 8 7 11 10 10 10 9 8 7 4 4 5 7 5 1 4 7 6 8 11 13 15 15 13 15 19 21 25 27 27 30 30 34 32 30 32
14 12 7 8 6 6 10 8 9 13 10 11 14 12 10 9 8 5 8 6 3 3 3 4 8 10 13 15 17 17 19 21 19 22 23 25 28 32 33 33 28 29 29
13 9 7 6 9 10 11 11 10 9 11 12 17 15 14 11 9 9 8 8 3 5 6 4 6 8 10 15 19 20 19 21 26 23 26 26 28 30 34 38 36 34 29
9 5 5 6 8 11 14 12 14 13 15 16 18 15 20 16 13 12 10 9 9 6 3 2 6 9 12 12 18 17 22 22 19 27 18 19 14 19 27 35 37 36 36
7 4 6 11 14 16 19 20 20 19 21 23 23 20 22 18 17 16 13 14 10 8 6 6 6 6 8 11 12 13 4 16 19 20 31 27 26 22 19 20 22 33 33
9 11 13 15 16 19 24 25 22 23 25 20 14 21 24 23 23 22 17 13 12 8 5 5 7 11 15 9 11 8 5 4 11 21 23 26 25 27 26 27 22 19 20
14 16 15 15 16 17 19 28 28 28 25 31 30 24 21 26 27 23 20 17 10 5 1 1 3 9 14 16 18 17 19 21 6 11 16 22 26 26 26 25 21 22 22
5 11 18 19 19 18 20 23 29 32 33 25 22 24 15 14 24 23 16 9 6 3 3 3 6 11 15 18 19 21 21 23 22 9 11 13 22 25 26 27 26 24 24
4 7 11 16 19 22 24 26 30 31 36 32 22 18 12 11 12 12 13 9 9 5 5 11 16 19 22 28 29 26 23 14 14 13 9 11 11 20 26 31 34 31 28

GFSSE_925_spd_006.txt.gz
Wind_Speed
8 10 9 11 14 13 15 13 10 9 10 11 11 12 10 11 15 17 18 18 16 14 11 10 7 7 5 3 8 6 2 3 4 4 4 5 7 8 10 11 8 11 14
10 8 9 10 13 14 16 14 14 11 11 10 10 10 11 9 10 11 12 12 14 9 5 6 7 16 11 3 1 7 4 3 1 2 4 6 8 10 11 16 9 11 12
7 8 10 11 13 13 15 14 15 14 12 9 7 8 9 8 9 9 9 9 8 8 11 2 9 11 9 13 8 3 6 7 5 4 5 5 8 10 11 15 13 12 12
8 6 10 9 12 13 13 13 13 13 11 9 8 7 7 8 8 9 11 14 12 10 7 3 4 10 8 6 4 11 11 8 10 8 8 7 7 8 9 12 13 12 14
7 8 10 10 12 12 12 11 11 9 8 7 8 8 6 7 7 8 12 16 9 3 3 2 2 1 13 17 17 16 16 15 13 12 11 10 9 10 12 11 14 15 15
7 8 9 10 10 12 11 10 10 10 9 8 7 7 6 6 5 5 7 5 7 6 5 3 2 5 8 11 18 23 18 16 17 14 16 13 12 13 15 13 16 18 16
12 10 11 10 11 10 9 9 8 7 8 8 8 7 5 5 3 2 3 3 4 4 6 6 9 12 15 13 19 19 20 19 18 16 17 16 10 14 17 15 17 20 19
14 13 11 9 10 10 8 7 6 5 5 6 5 5 5 5 4 3 2 2 4 5 6 6 7 14 18 17 18 23 19 15 11 16 18 17 13 12 20 18 18 20 21
13 13 13 12 11 9 8 6 4 4 4 5 5 5 4 4 3 2 1 2 2 3 3 4 4 3 6 8 9 11 13 13 13 18 17 19 17 16 23 19 19 20 22
15 14 13 12 10 8 8 7 5 5 4 3 4 5 4 4 4 4 4 3 3 2 3 4 3 3 4 5 5 8 10 11 13 12 13 18 18 17 23 21 20 20 22
17 14 14 12 8 6 6 7 7 6 7 5 4 7 6 4 2 4 3 5 6 6 5 5 6 7 6 5 6 8 10 12 12 13 15 15 16 14 17 20 20 20 23
22 17 12 9 7 7 6 8 7 6 5 6 6 6 7 5 3 4 2 4 5 5 5 6 6 8 9 8 9 9 11 13 14 16 16 18 16 15 17 19 19 20 21
17 13 10 6 6 9 7 11 10 7 8 8 7 7 8 6 6 8 6 5 4 3 5 4 6 10 11 13 15 16 13 11 14 14 15 13 12 17 19 21 21 23 22
18 13 9 5 7 7 5 8 8 9 11 10 7 7 6 7 6 7 6 5 5 3 3 4 5 6 8 10 11 12 12 17 21 21 17 18 18 16 16 19 22 23 24
17 15 10 3 5 7 6 9 10 12 14 13 11 10 8 9 8 8 7 6 4 4 4 6 8 7 9 11 12 13 16 17 16 15 18 20 22 23 20 18 21 20 23
21 18 12 8 5 7 7 7 7 9 10 9 10 9 8 9 9 9 9 8 7 5 6 6 6 7 8 10 11 13 14 16 18 19 20 21 23 25 25 23 24 25 24
17 18 15 10 6 5 7 8 8 10 11 12 11 9 8 10 10 10 10 11 9 7 6 4 5 5 8 9 11 11 13 12 15 19 21 22 25 23 25 28 26 25 25
16 18 14 8 7 6 6 8 8 11 11 12 13 13 11 12 10 12 11 11 8 7 6 4 4 6 8 10 12 13 15 17 18 19 21 23 25 26 27 26 27 31 31
17 18 12 8 7 4 5 8 9 10 14 15 15 16 15 14 13 11 12 11 8 9 9 7 5 7 8 10 13 14 15 15 17 20 20 21 22 24 25 26 29 31 32
17 13 9 6 4 7 9 9 12 16 14 16 16 20 20 17 14 15 13 14 11 12 12 10 8 6 8 10 12 15 13 15 18 13 24 18 24 17 20 22 27 30 33
16 10 5 5 7 9 11 14 15 19 19 21 20 19 24 22 20 17 18 15 16 14 15 13 9 8 9 9 11 15 16 18 11 23 13 25 24 22 23 15 23 21 26
11 9 7 6 8 12 15 19 20 23 24 24 25 24 26 28 28 25 23 21 19 18 17 14 10 7 7 7 5 6 4 15 17 16 26 19 23 22 25 26 27 27 21
10 8 9 9 11 14 19 21 24 25 25 27 29 28 31 31 32 31 30 26 23 21 21 17 12 9 4 2 6 2 3 3 15 18 24 23 18 23 22 22 26 29 21
12 12 13 13 15 17 20 24 29 33 28 36 38 36 32 26 35 34 32 28 23 21 15 11 8 4 2 2 10 7 16 15 5 11 16 22 25 24 25 24 22 23 23
9 11 14 15 18 18 21 23 26 30 39 42 40 36 35 32 32 36 32 29 22 20 16 9 1 4 9 11 15 19 24 24 21 8 12 16 25 22 22 29 32 35 33
4 2 6 10 13 16 19 23 28 32 38 37 39 41 36 30 25 29 28 22 18 15 13 8 6 8 14 18 22 26 25 13 14 11 8 13 15 24 24 26 27 23 26

GFSSE_925_spd_009.txt.gz
Wind_Speed
8 8 7 8 9 10 10 9 11 12 9 10 8 9 13 18 19 18 17 16 13 10 8 8 8 9 9 9 10 11 5 3 1 3 2 2 2 3 4 5 7 8 10
12 12 9 9 10 11 12 10 10 12 10 8 7 8 8 12 15 15 13 10 10 7 5 3 7 7 8 11 9 10 11 8 2 3 4 4 5 6 7 9 7 7 10
14 14 11 12 8 10 12 11 10 10 9 7 6 5 7 8 10 12 13 14 7 4 9 9 4 11 11 9 9 10 9 8 7 6 6 7 8 9 8 11 9 11 11
14 13 11 12 9 8 12 11 10 10 7 6 4 6 6 7 8 8 10 10 10 10 8 4 2 7 7 8 12 11 12 9 7 9 8 10 9 9 11 14 15 14 11
11 11 10 12 11 10 10 9 7 7 6 6 5 5 5 5 5 6 8 10 12 10 5 2 2 7 10 11 11 13 10 8 11 12 11 11 11 9 11 15 16 17 16
13 12 11 10 10 9 8 7 7 6 5 5 5 5 5 5 5 5 7 7 9 6 7 9 7 6 8 8 11 11 9 9 13 14 13 12 11 12 17 17 17 18 19
15 13 12 10 8 7 6 4 5 4 4 3 3 4 4 4 4 4 3 2 2 4 7 8 9 9 10 11 8 14 11 11 8 14 15 15 14 11 12 17 16 19 20
15 14 12 10 8 6 4 3 2 3 2 2 1 1 2 3 3 2 2 3 4 6 7 7 8 10 14 16 15 15 13 15 15 12 16 15 15 13 10 18 17 18 21
15 13 13 11 9 7 4 4 4 4 4 3 3 3 3 3 2 1 1 1 1 3 6 7 8 7 7 8 9 9 6 8 10 14 13 13 16 15 17 16 19 20 20
17 15 14 11 8 6 5 3 3 4 4 4 4 4 4 2 1 1 0 1 2 2 4 4 4 4 3 5 7 9 8 7 8 10 11 12 15 14 16 19 21 21 21
16 15 13 11 7 6 6 5 4 3 2 2 3 4 4 2 0 1 1 2 3 4 4 5 5 4 5 5 8 10 11 11 11 11 12 12 12 14 15 15 19 20 21
20 18 14 11 9 8 8 7 6 7 5 4 3 5 5 4 4 3 4 5 6 5 5 5 6 7 8 8 10 11 13 15 15 14 13 14 14 13 15 12 16 19 21
19 17 13 11 11 12 11 12 11 9 8 7 6 7 8 8 8 9 9 8 7 6 7 7 6 6 8 10 11 12 13 15 17 18 17 15 14 13 15 15 17 19 21
22 18 15 12 12 11 8 12 13 11 12 11 9 8 9 10 10 10 9 9 8 7 7 8 8 9 8 8 11 13 13 13 14 15 19 20 19 17 17 16 15 18 21
25 21 17 13 12 8 8 10 12 12 14 13 12 11 11 11 11 11 10 10 8 7 7 6 8 10 11 11 10 11 13 13 13 14 16 18 19 20 19 19 19 18 18
25 21 18 14 11 9 9 9 8 10 12 14 13 12 12 12 14 13 12 12 10 8 6 7 6 6 7 9 9 10 11 11 12 13 15 17 19 21 21 19 21 25 21
26 23 20 14 9 7 8 8 9 9 11 13 14 14 13 13 14 13 14 14 13 10 8 7 6 5 5 5 6 8 10 10 11 13 14 16 18 21 21 19 18 21 26
24 23 17 12 9 9 8 7 8 10 11 12 13 15 15 14 14 15 15 15 13 12 12 10 7 5 5 6 7 8 9 10 10 13 16 17 17 20 17 19 19 18 21
20 21 16 11 9 8 7 7 9 11 12 14 16 18 18 17 17 16 17 16 15 14 14 13 10 8 8 7 8 9 11 11 12 15 13 21 15 20 19 21 18 18 17
19 18 13 11 10 9 7 9 11 14 16 17 19 22 21 22 21 20 20 19 19 18 18 17 16 12 10 9 10 12 11 10 14 10 17 14 25 24 21 19 18 24 22
18 15 13 10 9 10 8 10 13 17 19 21 21 23 25 27 27 26 25 24 23 24 23 22 20 17 15 11 10 10 8 13 5 9 13 22 17 24 20 21 22 21 22
14 12 12 10 9 9 9 10 14 17 22 24 25 27 29 30 30 33 33 31 30 30 28 26 26 21 18 13 6 2 3 4 5 15 13 15 21 17 23 24 23 24 20
12 14 12 11 11 12 14 15 20 23 25 28 32 33 36 35 35 39 40 39 36 35 36 34 31 26 19 11 7 5 1 3 6 8 17 13 14 24 22 24 26 24 23
11 8 12 14 14 15 15 17 21 26 26 35 36 37 40 39 38 41 44 46 43 36 33 31 26 22 15 11 4 8 2 4 3 4 6 12 18 19 24 22 24 29 31
8 8 10 11 12 12 15 18 22 25 28 32 34 37 38 38 39 39 40 44 40 28 22 17 14 10 7 7 3 2 9 7 8 5 6 10 20 18 21 23 23 22 24
9 11 12 9 10 14 19 22 27 31 35 32 31 31 33 33 31 31 35 28 23 17 17 9 5 5 6 9 8 10 10 5 9 6 3 8 12 18 22 20 20 23 27

GFSSE_925_spd_012.txt.gz
Wind_Speed
6 8 7 7 8 7 6 6 7 8 9 9 12 12 11 14 13 14 12 9 6 6 4 3 3 3 4 4 6 6 7 6 5 8 8 3 2 2 4 5 5 5 6
9 8 6 6 8 9 9 6 7 7 8 7 8 8 10 10 11 10 9 9 8 4 3 2 4 7 8 6 5 8 7 6 5 4 7 6 3 4 5 5 6 6 6
8 8 7 7 9 10 9 10 7 8 5 5 5 5 6 7 8 9 10 9 5 3 7 8 5 9 8 7 7 6 6 7 5 3 2 3 3 5 6 7 8 8 9
10 10 10 9 11 10 9 10 8 8 6 4 4 3 4 5 8 9 9 6 7 9 9 8 4 4 5 7 6 7 4 3 3 5 3 4 1 5 8 8 11 9 10
11 11 10 10 11 9 9 9 7 6 5 4 3 3 5 6 7 8 9 11 10 11 8 6 3 5 7 7 7 9 6 7 6 6 3 6 4 5 8 10 11 13 13
13 12 11 11 11 9 8 7 6 5 5 5 4 5 5 5 6 8 6 8 8 7 6 7 7 7 9 9 9 11 9 12 10 8 6 8 9 7 9 11 13 14 15
17 15 13 10 9 7 5 4 4 3 3 4 4 3 4 3 4 4 3 4 3 4 6 8 8 9 11 12 11 8 10 9 8 7 9 11 9 12 11 14 14 14 13
18 16 12 9 7 5 3 3 2 2 2 3 4 3 1 0 1 2 2 2 3 5 7 7 7 8 10 8 9 9 8 8 11 12 10 11 11 12 14 12 13 14 15
14 12 11 9 7 4 3 2 3 2 2 2 3 2 1 1 2 2 2 2 2 3 4 5 6 5 6 6 6 7 7 7 7 9 8 9 10 15 14 14 12 16 16
14 12 11 8 5 3 2 2 3 3 3 3 2 3 2 2 3 3 3 4 4 5 6 6 7 7 6 6 7 7 6 7 7 9 10 10 9 10 11 13 15 17 17
13 12 11 9 6 3 1 1 1 1 2 4 4 5 4 3 3 4 4 5 5 5 6 7 8 7 7 7 7 9 8 7 7 8 9 10 11 11 13 13 12 14 17
16 15 13 10 7 5 4 4 3 2 4 5 6 6 6 5 5 5 6 7 8 8 6 6 6 9 9 9 9 9 11 11 10 9 9 10 10 11 12 12 13 12 16
19 17 15 11 10 8 9 9 8 7 8 8 7 7 9 9 9 9 9 9 9 9 8 8 7 6 8 10 10 11 12 12 11 10 10 9 10 10 12 13 12 12 14
23 20 15 13 10 9 10 12 12 11 10 10 10 10 10 10 11 12 11 11 11 10 10 9 8 9 8 9 10 9 9 9 11 11 11 11 11 11 13 14 13 13 14
23 22 18 14 11 10 10 11 12 12 12 12 13 12 12 12 13 14 14 14 13 12 11 10 9 10 8 6 5 5 6 7 7 8 11 11 11 12 12 14 15 15 14
25 24 18 15 12 9 7 8 8 10 11 13 14 14 14 15 16 16 15 15 15 14 13 12 10 9 8 7 6 6 6 6 6 8 11 13 15 17 15 12 13 15 15
29 23 20 14 11 8 7 8 8 8 10 12 14 15 16 16 16 17 16 17 17 16 14 13 12 11 9 7 6 5 6 6 5 5 8 10 12 15 17 16 12 11 14
25 20 16 12 9 8 7 8 9 10 11 12 14 15 17 18 17 17 18 18 17 18 17 15 14 12 10 9 8 6 5 5 3 6 5 10 9 14 15 16 16 14 15
18 16 16 13 10 8 8 8 11 12 13 13 14 17 19 21 21 21 22 21 19 19 20 19 18 16 14 12 10 9 8 7 5 3 5 4 11 14 15 14 15 17 16
14 15 15 13 11 9 8 9 11 13 14 15 15 19 21 23 25 27 27 26 23 23 24 22 22 20 19 15 13 13 13 11 10 6 2 4 9 9 11 10 16 17 17
13 16 15 13 11 10 9 11 12 15 15 17 17 21 24 27 29 30 31 31 29 29 30 28 26 24 23 19 13 13 15 15 16 12 6 4 7 10 6 11 19 16 19
17 16 14 12 11 11 13 11 11 14 18 23 26 28 29 30 34 36 37 38 37 35 35 33 31 29 27 22 9 3 2 5 14 14 8 4 9 4 11 16 14 18 18
12 12 10 10 11 11 12 15 17 20 22 26 30 30 31 35 36 35 39 45 45 42 41 40 38 36 29 24 23 8 1 5 1 6 7 9 5 13 10 16 14 15 17
6 7 9 10 8 7 9 13 15 19 23 29 29 31 30 28 31 31 31 35 44 46 43 42 38 33 25 16 13 14 5 2 3 3 3 3 12 6 18 15 17 15 11
3 6 10 12 12 14 18 21 22 24 25 27 29 28 28 29 27 28 28 27 33 36 35 29 19 15 13 9 2 0 5 3 6 3 3 3 15 9 10 17 16 12 14
14 15 16 17 20 22 23 23 22 22 25 28 30 30 32 31 28 26 24 20 17 12 9 14 17 14 10 8 6 8 5 4 3 3 2 6 8 19 18 17 13 18 15

GFSSE_925_spd_015.txt.gz
Wind_Speed
5 6 5 3 3 5 5 7 8 12 9 8 11 11 10 7 7 9 7 6 6 5 2 1 3 2 3 3 2 1 2 2 2 0 2 1 1 4 6 4 8 9 11
8 8 6 5 6 5 6 7 6 6 8 8 10 9 8 8 8 9 9 10 7 3 3 3 5 7 8 5 3 1 2 2 2 2 1 2 0 0 2 4 4 6 9
8 10 10 8 7 7 8 9 7 7 7 6 8 9 9 10 10 9 8 6 3 2 5 8 7 5 6 3 2 2 2 1 2 2 3 2 3 2 3 2 2 4 6
10 11 10 10 9 8 8 8 8 6 5 5 5 7 8 8 8 7 6 3 5 8 10 9 5 4 5 3 3 2 2 3 3 4 3 4 4 4 3 3 4 4 5
13 12 12 11 10 8 7 7 6 6 5 4 3 3 4 6 8 7 6 9 11 12 9 6 3 4 3 4 6 5 4 6 6 8 7 6 5 5 4 4 6 8 8
12 13 11 10 9 8 7 7 6 5 5 5 3 4 1 1 3 3 4 6 6 5 3 4 4 5 6 7 6 6 6 7 7 8 7 10 7 8 7 4 5 9 11
14 13 12 9 8 7 6 6 5 5 5 3 3 3 2 1 3 3 3 3 2 3 5 6 5 5 6 7 6 7 7 7 7 6 8 8 10 10 7 8 11 13 13
14 13 12 9 7 6 4 6 4 4 4 4 4 2 0 1 1 1 1 1 2 3 4 6 6 7 6 5 4 2 3 4 3 4 6 6 7 10 8 8 10 10 12
14 13 11 9 6 4 4 4 3 3 2 3 3 2 1 2 2 3 3 3 3 5 5 5 5 4 4 4 4 4 3 2 2 3 3 3 6 6 7 9 10 11 14
13 12 10 7 5 3 3 3 3 3 2 2 2 2 3 4 5 4 4 4 5 6 7 6 5 5 4 5 4 3 3 3 4 4 4 4 5 4 4 5 9 11 13
12 10 10 8 5 3 3 2 2 1 0 2 3 4 4 4 4 5 5 5 6 6 7 8 8 6 5 6 7 6 6 6 5 5 5 6 5 6 6 5 9 10 10
14 14 12 10 7 4 3 3 2 2 2 3 5 6 5 5 7 7 8 9 9 9 9 9 9 9 9 7 7 8 5 6 5 5 5 7 8 7 7 8 8 8 8
15 15 15 11 9 7 6 6 6 5 5 5 6 7 8 8 9 9 10 11 10 10 10 10 10 9 9 9 8 8 8 6 4 3 4 6 7 6 8 8 7 7 7
18 18 16 13 11 9 8 8 9 9 8 8 9 9 10 11 10 11 12 12 12 12 11 11 11 11 10 9 9 8 7 5 2 2 3 4 5 6 7 8 9 8 8
18 17 16 14 12 9 7 8 9 10 10 10 11 12 12 12 13 13 14 14 14 14 13 12 11 12 11 8 6 5 4 3 2 2 4 5 6 5 5 6 8 8 9
20 18 17 15 11 8 6 7 7 9 10 11 11 12 13 14 16 17 17 17 17 16 15 15 13 12 11 10 7 5 4 3 2 1 2 3 7 9 8 5 5 6 7
20 18 18 16 11 9 8 7 6 7 9 10 11 12 13 14 16 18 19 19 19 18 18 17 16 14 13 12 10 8 6 4 4 3 2 1 1 4 7 7 5 5 6
19 19 19 17 12 10 9 8 8 9 9 11 12 14 14 15 17 19 21 22 21 20 20 19 17 16 15 13 12 9 8 7 6 5 5 4 2 1 2 3 4 5 7
14 18 19 16 13 11 10 9 8 9 9 10 13 15 17 17 19 22 24 25 24 23 24 22 20 20 16 15 14 13 13 11 9 8 8 6 3 1 0 3 3 4 5
11 14 15 14 13 12 11 9 10 9 10 12 14 17 19 21 22 24 27 30 29 28 28 27 25 22 22 18 15 15 15 14 14 13 11 9 6 2 1 2 5 7 7
10 13 14 14 11 10 8 8 8 8 12 15 18 22 23 24 24 26 28 30 30 30 33 32 28 24 21 21 12 17 18 18 18 16 15 12 9 5 3 4 5 7 10
6 6 6 3 4 6 9 10 12 16 15 18 20 23 24 26 28 27 25 26 27 25 28 34 30 24 20 20 17 16 7 12 14 17 16 13 10 8 5 5 6 5 7
7 5 5 6 7 8 8 10 11 11 13 14 18 23 25 22 21 24 24 24 25 24 26 29 29 29 28 21 24 16 6 10 7 9 17 14 11 9 4 4 4 6 6
8 8 9 13 14 13 12 12 13 11 12 14 17 20 26 26 27 27 27 26 25 22 23 23 23 25 24 26 15 20 12 8 9 9 10 12 11 8 7 4 6 6 6
16 17 14 13 15 15 16 16 14 12 11 17 22 26 28 27 28 27 25 25 23 19 17 15 15 13 15 22 18 11 10 7 4 8 10 9 8 9 9 10 9 9 6
13 13 13 14 14 17 17 15 14 14 19 21 25 29 31 29 29 28 22 17 13 6 4 9 10 10 7 6 4 4 2 5 4 3 2 5 11 17 12 13 11 10 12

GFSSE_925_spd_021.txt.gz
Wind_Speed
12 10 9 8 7 6 5 6 5 5 6 6 4 5 5 6 7 6 6 7 6 5 4 5 4 7 6 5 3 2 2 2 3 3 3 2 3 2 3 4 3 4 4
12 11 11 9 7 7 6 5 5 5 7 7 7 6 5 6 7 6 6 6 5 5 6 7 6 5 5 6 4 3 3 3 4 5 4 4 4 1 1 1 3 3 4
14 12 11 12 10 9 7 6 5 5 5 5 6 6 6 5 5 4 2 3 1 2 4 6 6 5 6 6 6 5 4 4 5 6 5 8 10 1 2 2 2 1 2
14 14 12 12 11 10 8 7 6 5 5 5 5 4 4 4 2 1 2 1 2 4 6 6 6 7 6 6 6 6 5 6 7 8 9 10 6 5 3 3 2 1 3
14 13 12 11 11 10 9 7 7 5 5 5 4 3 2 2 0 2 3 5 6 6 4 5 5 5 6 6 7 7 8 9 9 10 13 10 9 4 2 4 3 4 5
14 13 12 12 11 9 8 7 7 6 5 4 4 3 3 1 0 2 4 5 6 5 5 6 6 6 6 7 8 9 9 10 12 12 16 13 9 10 6 7 6 8 7
15 13 11 11 10 8 8 8 8 8 7 6 5 4 3 2 3 3 3 4 4 5 6 6 6 7 7 7 7 8 10 10 10 12 12 16 9 8 11 9 8 8 9
14 12 9 9 8 7 7 6 6 7 7 6 6 5 4 5 4 4 4 4 4 4 5 6 6 5 5 5 6 6 7 7 8 12 10 10 10 6 8 10 12 11 8
12 11 10 7 6 6 5 6 6 7 6 6 6 5 5 5 4 4 3 3 3 3 4 4 4 4 4 5 6 6 7 7 8 9 9 3 4 3 6 7 10 12 11
10 10 8 7 7 5 3 4 5 5 5 6 5 5 6 5 8 8 6 5 5 5 5 6 6 6 6 7 7 7 7 7 6 8 8 8 7 6 5 4 8 12 15
11 9 6 6 5 4 4 4 4 6 6 7 6 9 5 3 5 4 4 6 6 7 7 8 8 9 9 7 8 9 11 8 7 9 4 6 7 8 6 6 7 7 10
11 10 9 5 4 3 3 2 1 0 2 3 4 5 5 6 5 7 4 11 8 9 10 7 9 12 6 9 10 9 8 9 11 10 8 10 12 11 8 8 8 8 8
13 11 9 6 4 1 4 4 1 2 2 2 3 5 6 7 6 8 7 7 7 11 8 9 10 9 9 10 10 11 11 12 11 11 8 12 13 9 9 9 9 9 10
13 10 8 6 6 4 1 3 3 2 1 3 5 5 7 7 8 8 9 11 11 10 11 11 12 11 12 12 12 12 11 11 11 11 10 13 12 9 8 8 9 9 9
9 10 9 8 8 5 3 2 3 2 1 2 2 4 5 6 7 9 10 11 11 12 12 13 13 14 14 14 13 12 13 12 12 11 10 11 12 9 8 8 8 8 8
11 9 9 8 8 6 4 2 3 2 2 1 0 2 3 4 6 8 10 11 12 13 13 14 15 16 16 15 15 14 14 14 13 13 12 11 11 10 9 8 8 10 9
10 9 7 8 8 9 6 4 3 2 2 2 2 1 1 3 6 9 11 13 14 15 16 17 17 17 17 17 18 16 16 16 15 15 15 14 12 12 13 10 9 9 8
7 5 6 8 9 10 6 4 3 3 4 4 5 5 5 5 7 10 13 15 16 17 18 19 20 20 21 21 20 19 19 18 17 17 17 16 16 14 14 14 12 10 9
6 6 6 8 8 8 5 5 4 5 6 6 6 7 6 8 9 11 13 16 17 19 21 21 22 21 23 23 24 24 22 21 20 21 20 20 19 17 16 17 15 14 13
3 2 2 5 6 3 3 4 6 6 7 7 8 9 8 11 11 13 15 16 18 20 21 22 22 24 25 26 28 27 26 24 23 23 23 23 22 21 20 15 16 16 17
6 5 5 5 3 3 4 5 6 6 7 10 10 8 10 10 12 15 17 19 19 19 20 22 23 23 25 25 26 25 27 28 28 27 25 25 25 24 23 21 20 18 18
11 9 7 5 4 3 3 5 5 7 9 10 9 9 12 10 13 14 16 18 22 21 22 22 23 24 24 24 23 23 13 21 26 31 32 30 29 27 26 25 23 21 17
11 9 8 7 6 7 6 5 7 9 9 11 11 18 18 19 18 17 17 17 22 23 23 21 22 23 23 25 24 22 13 13 14 24 22 29 27 25 27 26 26 24 20
10 9 8 6 5 6 8 5 6 8 12 15 17 18 19 22 21 19 20 20 20 22 22 21 21 19 20 24 24 26 25 18 7 11 28 23 23 24 22 25 24 23 21
8 7 6 5 6 6 6 6 9 13 15 17 17 17 19 21 20 22 21 21 20 19 18 15 11 10 11 12 12 15 17 18 16 5 9 14 22 16 18 19 22 19 20
6 6 6 7 8 8 10 10 11 13 14 16 17 19 19 21 23 22 22 19 18 15 11 6 6 6 7 6 7 8 6 4 6 4 2 6 9 11 16 14 11 17 20

GFSSE_925_spd_024.txt.gz
Wind_Speed
18 17 13 12 12 11 10 10 11 12 12 11 10 9 10 9 8 7 8 9 8 8 7 7 7 7 8 9 8 7 5 6 7 6 5 6 7 5 5 6 8 9 6
23 17 14 13 13 12 11 10 10 11 11 11 10 9 8 7 6 6 7 7 7 8 8 7 6 7 9 10 11 10 8 7 7 7 7 5 6 3 5 4 7 10 10
22 18 16 15 14 12 11 11 9 10 10 10 10 9 8 7 6 5 5 3 4 6 7 7 8 9 10 11 11 10 9 10 9 9 10 9 8 5 9 3 3 6 8
26 19 17 17 15 14 12 12 11 10 9 9 8 7 6 6 5 4 3 3 4 6 7 8 9 9 10 9 9 10 10 11 12 12 12 12 3 2 5 7 4 3 5
22 18 19 17 16 14 13 12 10 9 9 9 8 7 6 5 4 3 5 5 5 5 5 5 6 6 7 7 9 10 10 11 12 13 12 13 8 4 8 4 5 4 2
20 19 18 16 15 14 13 12 10 10 9 8 8 7 6 5 3 3 4 5 6 5 5 6 7 7 7 7 8 9 11 12 13 12 11 15 11 6 12 4 4 5 3
19 18 17 15 14 13 12 11 10 9 9 8 8 6 6 6 4 5 5 5 5 5 6 8 8 8 8 8 8 9 10 10 11 10 8 8 10 12 11 8 7 7 7
20 15 15 14 13 12 11 11 9 9 9 9 8 7 7 7 6 6 6 7 6 6 7 7 7 7 7 8 8 9 9 10 10 9 15 4 1 1 8 7 8 8 8
17 15 13 12 12 12 11 10 9 9 10 8 8 7 6 8 7 8 6 7 7 6 7 7 6 6 7 7 8 9 9 9 10 7 6 2 4 7 10 8 8 10 10
14 15 13 8 8 8 8 8 8 8 8 9 12 9 7 7 8 8 8 11 9 8 8 9 9 9 8 8 7 9 12 10 7 11 11 9 5 5 8 8 8 11 13
13 10 9 14 10 5 7 8 7 6 7 7 9 10 5 7 6 4 8 10 9 10 12 8 10 13 10 7 8 7 11 7 12 9 8 6 6 7 9 9 9 9 9
13 10 10 11 8 5 6 2 6 3 6 6 6 6 9 6 1 6 7 8 7 13 13 7 11 12 10 11 12 10 10 11 13 11 12 12 11 11 13 12 11 11 10
14 12 16 10 6 2 6 3 5 4 5 4 8 5 5 5 5 7 9 8 12 13 8 11 14 13 7 15 13 14 15 15 14 15 15 12 13 15 14 12 12 13 12
19 17 18 13 9 4 2 5 5 3 6 4 7 4 3 4 4 5 5 7 9 10 11 10 11 11 15 14 12 14 15 15 15 17 14 12 15 16 13 12 12 12 13
19 18 17 15 9 5 2 3 1 2 3 3 3 2 1 2 2 3 5 7 8 10 11 10 11 14 15 15 16 15 13 15 16 17 16 17 15 16 15 12 11 12 12
15 17 18 20 17 10 5 4 2 4 1 3 3 2 2 1 3 3 5 8 10 12 14 16 19 18 16 16 17 18 19 17 18 18 16 19 18 17 15 14 12 11 11
15 14 18 8 15 12 6 5 2 2 3 1 2 1 2 3 5 7 8 10 11 14 16 18 19 18 20 20 21 20 20 23 22 18 21 18 21 19 16 16 16 15 14
6 7 10 11 10 9 7 6 3 1 2 4 5 5 5 5 5 8 11 13 15 17 19 20 22 22 21 22 23 23 22 23 21 22 21 21 22 21 21 20 18 19 17
10 8 8 3 7 6 8 3 2 4 4 6 3 5 1 3 7 10 13 16 18 19 20 21 22 23 21 22 23 23 25 26 26 24 23 25 25 25 18 23 23 22 21
13 9 5 8 9 5 5 0 4 6 6 8 6 3 4 8 5 8 14 16 18 19 20 20 22 22 24 25 26 27 29 31 30 24 25 26 25 27 29 23 22 24 23
11 14 15 11 10 5 3 4 7 10 10 9 7 8 6 11 12 13 15 18 19 22 22 23 21 22 25 24 27 24 25 27 30 34 34 29 28 28 31 33 27 26 25
14 13 12 12 10 9 9 6 6 7 6 9 10 5 12 11 12 15 19 23 18 21 22 23 23 24 23 21 22 20 9 18 23 28 32 35 35 36 31 33 35 27 23
15 14 13 11 9 10 8 7 7 8 9 10 12 17 17 15 22 23 19 18 19 19 18 22 24 25 20 20 18 17 7 8 12 21 29 24 21 25 26 28 34 36 34
14 12 10 7 7 7 8 7 9 13 14 17 17 19 22 19 20 17 21 22 21 19 19 21 16 13 14 17 19 13 18 14 4 7 13 21 24 15 11 16 19 8 17
10 8 6 6 3 2 4 7 9 12 15 16 17 16 20 15 21 22 23 24 22 20 20 13 8 12 15 16 17 16 19 21 4 4 5 9 26 23 21 17 10 15 9
8 5 5 8 10 10 7 8 9 10 12 14 16 18 16 20 22 23 24 22 24 19 7 5 8 10 9 12 13 13 8 4 4 2 2 4 8 14 26 21 18 12 9

GFSSE_925_spd_027.txt.gz
Wind_Speed
18 18 17 17 16 15 15 14 15 14 14 13 13 13 12 12 13 13 13 13 13 12 11 10 9 8 8 7 7 6 6 7 7 7 5 5 6 5 9 10 11 7 8
23 19 19 18 17 16 15 15 15 15 15 14 13 12 11 11 10 10 9 8 8 8 8 8 7 8 8 8 8 8 7 7 7 7 7 8 5 5 7 8 8 9 7
23 21 20 19 18 17 16 15 14 14 13 13 12 11 11 10 9 7 7 7 8 8 8 8 8 8 8 9 9 9 9 9 7 5 6 7 5 1 8 7 3 2 8
24 23 22 20 19 18 17 15 14 14 13 13 11 11 10 9 8 8 7 6 7 7 6 7 8 9 9 9 9 9 9 9 10 10 9 9 1 3 2 5 3 4 4
25 24 22 21 19 18 17 16 14 14 13 13 12 11 10 8 7 7 8 7 7 6 7 7 8 8 8 9 9 10 10 10 9 9 7 4 1 4 5 1 5 6 6
25 23 21 20 19 18 16 16 15 14 13 12 11 10 9 8 7 8 7 7 7 7 7 8 8 9 9 9 9 9 10 10 9 7 7 6 5 6 1 4 6 7 8
24 22 21 19 18 17 16 15 14 13 12 11 11 10 9 9 8 8 8 8 7 8 8 8 9 9 8 9 9 9 8 8 8 8 10 6 6 4 5 4 5 8 5
24 21 20 18 17 15 15 14 14 13 13 12 12 11 10 10 9 8 9 8 7 7 7 7 8 8 9 9 10 11 11 10 8 6 9 4 4 5 8 9 9 10 7
20 20 19 18 16 15 14 15 14 14 13 13 12 11 12 11 11 11 10 9 8 7 7 7 8 10 10 9 8 10 12 11 9 8 6 6 2 2 5 7 6 9 10
18 15 17 16 14 14 15 14 14 14 15 16 14 13 10 8 8 9 8 9 9 11 10 8 11 13 11 10 8 10 12 11 10 12 10 9 8 5 6 8 9 9 10
19 18 15 15 11 13 14 12 13 13 13 13 10 8 10 5 5 7 5 6 7 10 8 8 13 11 11 9 11 13 12 14 13 13 11 11 11 10 10 11 11 11 10
19 24 20 16 10 9 8 7 9 10 10 12 9 10 9 4 4 3 4 5 9 10 7 7 12 11 10 8 13 16 13 14 15 14 17 17 15 11 12 15 15 13 11
22 23 19 13 12 7 6 6 8 10 10 11 9 8 7 3 5 4 4 5 8 8 8 11 10 11 12 15 18 16 13 16 19 17 17 14 14 13 13 15 15 14 14
25 27 21 16 17 10 8 10 11 13 13 14 10 8 6 6 4 3 1 2 5 7 10 11 8 9 14 15 17 19 18 17 15 15 19 19 15 16 16 17 16 15 13
27 33 26 22 19 14 10 7 5 6 10 9 9 3 6 4 1 2 1 3 4 6 7 9 12 18 18 17 18 20 20 19 21 18 17 20 20 19 19 19 17 15 14
29 35 30 24 14 8 10 8 6 7 5 9 8 6 3 3 1 2 4 6 9 11 13 14 17 20 19 19 21 21 22 22 24 24 20 21 20 20 18 18 18 17 15
24 25 26 22 10 8 12 9 5 11 8 7 7 4 3 4 5 6 8 9 11 14 17 19 21 21 22 24 23 23 23 25 27 27 26 21 25 24 20 20 19 19 19
19 25 30 24 6 25 15 11 7 9 6 4 4 5 5 4 2 4 8 11 13 16 20 22 22 24 24 24 24 22 22 25 28 31 31 29 26 26 27 23 22 21 21
24 15 9 11 21 22 17 8 7 3 2 6 1 2 9 5 3 6 7 13 16 18 19 21 23 23 24 27 30 28 27 28 29 30 27 31 31 30 29 28 24 25 24
28 25 22 20 19 14 11 7 2 1 1 4 3 4 2 4 7 10 13 15 15 19 23 23 25 26 29 30 30 30 30 30 28 28 30 30 30 33 34 33 32 27 28
28 26 22 19 16 17 15 11 9 10 8 8 7 6 9 6 6 10 13 15 19 18 18 23 25 24 27 28 31 25 22 23 24 24 26 28 28 32 35 37 37 37 32
24 23 20 16 13 13 13 12 10 11 13 10 14 14 15 18 17 15 15 17 17 17 18 18 20 25 23 14 13 17 6 14 16 17 19 20 13 14 14 16 28 36 35
21 19 16 13 12 10 10 8 8 8 11 15 21 22 19 17 15 18 20 21 20 19 17 19 16 12 10 12 18 10 4 4 17 15 19 17 14 12 14 13 6 6 17
15 14 11 7 5 7 9 8 8 8 12 15 14 16 15 14 18 21 24 25 26 24 22 17 8 10 11 14 15 18 12 9 3 8 6 21 18 20 22 19 17 11 9
10 9 8 11 7 4 3 5 6 6 8 7 10 11 14 18 23 26 28 26 25 21 17 10 9 12 13 14 14 15 17 19 6 3 8 5 18 21 21 21 14 16 12
9 8 4 6 10 14 11 8 8 7 6 8 7 10 15 19 21 22 23 20 16 13 11 11 10 8 9 11 15 14 10 5 7 4 4 4 7 10 22 15 12 11 12

GFSSE_925_spd_030.txt.gz
Wind_Speed
18 19 18 17 18 17 17 17 16 16 16 14 14 14 14 14 14 14 13 12 11 11 10 10 9 8 8 7 8 7 7 7 7 8 7 5 6 5 6 6 3 3 4
24 21 19 18 17 18 17 17 17 16 16 15 14 14 13 13 12 11 10 10 9 9 9 8 8 8 8 7 6 6 7 6 6 6 6 4 2 2 2 2 2 2 1
26 22 19 18 18 17 17 17 17 17 16 15 14 13 12 11 9 9 9 8 8 9 8 9 8 8 8 8 8 7 7 7 7 5 5 6 3 2 3 2 2 2 4
26 22 20 19 18 18 17 17 17 16 15 14 14 12 11 9 8 8 8 7 8 8 7 8 8 8 8 8 7 6 6 6 6 6 3 3 1 3 6 3 4 4 6
26 23 21 20 19 19 17 16 16 16 15 14 13 11 10 9 8 8 9 9 9 8 7 8 7 8 8 9 9 9 8 8 6 5 3 3 2 2 6 4 3 4 6
25 23 22 20 19 17 16 16 15 14 14 13 12 10 10 9 9 9 9 9 8 8 7 8 8 9 9 9 9 10 10 10 8 5 3 0 4 6 7 4 6 5 6
25 23 21 19 17 16 17 16 15 14 13 12 11 11 11 10 10 10 10 9 8 8 7 7 8 9 9 9 9 9 10 10 9 7 7 3 5 6 5 4 7 7 9
26 23 20 17 17 17 16 15 14 13 13 13 13 13 12 12 10 11 10 9 7 7 6 7 9 9 9 9 8 8 9 10 9 6 5 3 4 5 4 4 5 9 13
24 22 20 19 17 15 15 15 15 14 14 13 14 13 13 12 13 11 10 10 10 8 7 9 11 10 9 10 8 11 12 12 12 10 8 7 7 7 8 6 5 8 11
24 23 22 19 17 14 15 16 16 17 15 15 14 11 10 10 9 8 7 8 9 7 8 9 11 10 10 9 11 14 13 13 12 12 13 10 9 9 9 8 8 7 9
24 23 20 17 15 15 15 15 15 14 14 13 11 9 7 7 6 5 4 5 4 5 4 6 8 7 7 7 11 15 16 15 14 14 14 12 12 12 11 12 11 11 11
27 24 21 17 16 15 15 14 12 12 12 11 8 8 5 5 4 3 1 2 3 5 4 6 7 8 9 10 12 13 15 16 15 15 17 14 13 13 13 14 15 15 14
29 27 24 19 15 13 12 13 11 11 12 10 7 7 6 4 4 4 3 2 2 5 7 9 9 8 10 14 16 16 15 16 16 16 16 15 13 15 15 15 16 16 16
33 31 27 22 18 13 10 10 11 12 13 12 8 8 5 8 6 4 2 2 5 6 10 9 8 10 16 19 19 19 19 19 17 19 18 16 16 15 18 19 19 17 16
34 33 28 24 20 16 14 12 10 13 16 14 13 9 8 9 6 5 3 3 5 8 9 10 13 16 20 20 20 21 22 23 23 21 21 21 19 19 19 19 20 19 16
34 33 27 21 15 12 11 9 9 10 13 13 14 9 8 9 6 6 4 4 6 8 11 14 16 19 21 23 26 25 25 24 25 26 26 25 24 22 22 21 21 22 21
35 35 29 24 18 14 14 11 6 9 10 12 13 11 9 8 7 6 7 7 9 11 13 15 17 18 20 22 23 23 24 24 24 25 25 25 31 29 26 25 25 24 22
33 35 31 29 18 12 11 10 7 9 10 6 12 11 9 8 7 6 6 7 9 11 13 16 19 20 22 24 28 29 26 25 25 27 29 30 27 30 33 30 28 25 25
31 31 28 15 10 12 8 9 6 7 4 3 2 6 4 2 2 5 7 9 11 14 16 18 20 22 25 29 29 27 28 25 25 26 25 27 29 27 29 35 33 30 27
24 20 14 10 8 9 9 7 5 6 15 13 12 9 6 7 7 8 10 12 14 15 15 17 20 21 23 25 29 30 26 27 28 24 20 20 20 21 20 23 36 37 33
32 28 24 22 15 13 12 9 11 17 19 17 15 13 11 10 10 11 13 14 16 17 16 16 18 22 22 23 25 25 25 23 18 15 16 19 17 13 12 11 15 25 34
26 25 23 20 18 17 16 15 14 12 12 14 13 11 10 10 11 12 15 18 19 19 19 18 20 18 12 14 10 11 5 20 10 26 27 22 16 14 15 17 14 11 17
21 18 16 16 15 13 12 10 10 10 10 11 12 9 9 9 11 15 19 22 22 20 19 19 17 14 10 7 9 6 3 3 14 9 23 20 23 26 24 24 20 16 13
14 13 12 9 10 8 8 9 8 5 3 2 3 5 7 10 14 18 22 26 22 21 19 14 9 9 8 5 4 7 5 4 3 6 6 24 17 26 26 22 16 14 14
11 11 11 11 7 5 4 4 3 4 4 5 2 4 9 13 17 19 19 17 16 14 12 9 7 4 6 6 8 5 7 10 4 2 5 5 22 23 17 18 15 13 8
9 8 7 8 10 6 5 5 6 6 6 3 6 11 15 16 17 17 16 15 16 17 11 7 6 7 9 14 12 12 8 5 5 5 4 9 10 16 22 18 15 12 8

GFSSE_925_spd_033.txt.gz
Wind_Speed
18 18 17 16 16 16 15 15 16 16 17 17 16 16 15 14 13 12 12 11 10 9 9 9 8 7 7 7 8 8 8 7 7 6 4 3 3 5 7 9 5 6 5
25 21 19 18 17 18 17 17 17 16 16 16 15 14 14 13 11 10 9 9 8 9 9 9 8 8 8 8 8 8 8 7 5 5 5 3 2 2 4 3 4 4 2
25 22 20 19 18 18 18 17 17 17 16 16 15 14 12 11 10 9 8 8 8 9 9 9 8 9 9 9 9 8 8 7 5 5 5 4 2 3 6 4 3 3 1
26 23 21 19 19 18 18 17 17 16 15 15 13 12 11 10 9 8 8 7 8 8 8 8 9 10 10 10 10 10 9 8 7 5 4 2 2 6 6 2 4 4 3
24 22 21 19 19 18 16 16 15 15 14 14 13 11 9 9 8 8 8 7 7 8 8 9 10 10 10 10 10 9 9 9 8 5 3 2 2 5 5 7 3 4 4
24 22 21 19 18 17 16 16 15 15 14 13 12 10 10 9 8 8 8 8 8 9 8 10 10 10 9 9 9 9 10 9 8 6 4 3 3 5 7 11 13 7 5
25 22 20 17 17 17 17 16 15 14 13 12 12 11 11 9 9 9 8 9 8 8 8 10 10 10 10 10 11 11 12 13 11 7 8 3 3 4 7 7 10 11 10
26 22 19 17 16 16 16 15 15 14 13 13 12 11 11 10 11 9 8 9 8 7 9 11 10 11 11 10 11 13 14 14 12 11 8 8 4 6 5 8 10 11 13
23 22 19 17 16 16 16 16 15 14 13 13 13 12 12 12 10 10 10 10 9 9 10 11 11 12 13 12 13 14 15 14 13 11 12 10 6 6 8 9 8 11 13
23 21 19 17 16 16 16 15 14 14 13 13 12 10 11 9 8 8 8 7 6 7 7 8 9 9 10 11 12 13 14 15 13 13 13 13 11 9 9 10 10 10 12
22 22 20 18 17 17 16 16 15 13 13 11 10 8 7 6 5 4 4 3 2 4 3 4 4 5 7 8 10 12 12 13 14 14 14 14 13 12 11 11 11 12 13
24 24 22 20 19 18 18 17 15 13 12 9 8 6 5 5 3 2 1 1 3 3 5 6 7 8 9 10 13 13 14 14 15 16 16 16 14 13 11 12 13 13 14
29 25 24 20 18 17 17 17 16 14 11 10 8 6 5 5 6 5 3 3 5 7 9 10 10 8 10 13 16 17 16 16 17 17 18 17 16 15 17 14 14 13 13
29 27 23 22 20 18 16 17 15 15 13 11 8 7 7 7 6 5 3 2 5 8 9 9 10 12 14 16 18 17 18 20 21 21 20 20 20 19 18 19 17 16 15
31 30 26 24 21 18 17 16 16 16 15 12 11 9 8 8 7 5 3 2 6 8 9 9 11 13 15 17 18 20 20 20 20 21 21 23 25 25 24 22 21 18 17
32 32 29 26 21 17 16 13 13 14 13 14 13 12 9 10 8 6 6 5 6 8 10 11 12 14 16 19 21 22 23 23 22 21 21 21 20 22 28 29 26 24 20
30 34 30 27 19 12 11 8 8 9 9 11 11 11 9 9 7 6 5 4 6 8 11 13 14 16 18 19 20 23 24 25 26 26 26 25 23 23 23 23 30 30 27
29 33 28 25 17 6 5 4 2 6 5 6 10 8 6 5 3 2 3 6 8 11 14 16 17 19 19 21 24 26 27 25 23 23 23 22 21 20 21 20 22 28 32
28 31 22 19 10 3 3 6 9 8 7 8 5 5 8 7 5 4 8 11 13 14 15 16 18 19 22 25 27 28 27 27 24 19 16 16 17 17 15 17 20 22 26
24 23 15 5 9 5 11 17 15 18 19 16 14 11 8 9 10 11 13 15 16 17 18 19 20 21 22 19 23 19 22 23 12 15 19 20 18 17 17 16 17 18 21
22 15 16 14 14 10 12 11 15 20 17 14 12 9 9 10 13 15 14 14 16 19 20 20 22 23 21 21 15 23 20 4 23 14 32 17 19 18 21 23 21 20 19
24 21 19 19 16 15 16 15 12 11 10 7 6 7 9 9 7 9 11 14 19 22 21 18 16 15 15 14 10 11 4 13 5 31 15 25 21 23 25 26 24 22 19
21 20 18 16 14 11 9 8 6 4 3 1 1 3 4 6 8 12 16 19 18 16 15 14 13 12 12 13 10 5 4 3 6 6 22 9 22 23 26 25 22 17 17
18 17 16 15 12 10 7 3 2 4 5 3 5 3 4 8 12 15 16 14 14 14 14 13 10 9 9 10 12 7 9 8 3 5 4 19 16 24 22 23 23 16 13
16 14 14 13 11 10 7 6 6 6 5 5 2 2 7 11 13 12 10 10 10 12 11 7 5 4 4 6 8 9 11 11 6 4 7 7 20 21 19 22 19 16 11
13 12 10 10 8 6 5 5 6 7 8 5 0 6 11 12 11 12 13 12 12 10 9 8 4 4 11 9 8 13 12 8 7 7 6 14 10 18 20 19 17 13 12

GFSSE_925_spd_039.txt.gz
Wind_Speed
15 18 20 20 22 23 23 24 23 22 22 22 21 20 18 17 15 13 11 11 10 11 10 11 10 10 9 9 8 8 8 8 8 8 8 7 8 8 9 8 8 7 6
22 19 19 20 22 23 23 22 22 22 21 20 19 18 16 15 14 12 11 10 9 10 10 10 10 9 9 9 8 8 8 8 8 8 8 6 5 7 9 9 7 6 6
23 19 18 18 21 22 22 22 21 20 19 18 16 14 13 12 11 11 10 9 9 10 11 11 11 11 12 11 11 12 11 10 9 8 8 6 6 7 8 10 10 8 6
22 19 17 18 19 20 20 20 20 18 17 15 14 12 11 11 12 11 11 11 11 12 12 12 12 13 13 13 14 14 14 12 11 10 10 7 5 8 7 10 9 9 8
20 19 18 18 19 19 19 18 17 16 15 14 13 12 11 11 12 11 11 12 12 13 12 13 13 14 14 15 16 17 16 15 13 11 11 10 7 8 8 10 11 10 9
18 17 19 18 18 18 17 16 15 15 14 13 12 12 11 12 12 11 12 13 13 12 13 13 13 13 15 16 17 17 18 17 16 13 12 11 9 9 8 9 11 11 10
21 19 18 18 17 17 16 15 15 15 14 13 12 12 12 12 12 12 12 12 13 13 14 15 16 16 15 15 16 17 17 16 15 13 13 13 11 10 10 9 10 10 10
21 19 17 17 16 15 15 15 15 14 13 13 13 12 13 13 12 12 13 12 13 13 13 14 15 14 14 14 15 15 16 17 16 14 13 12 12 11 11 10 10 8 10
19 19 17 16 15 14 14 15 14 13 13 13 13 13 13 13 14 13 13 13 12 10 10 11 12 12 12 12 12 14 14 15 15 14 14 13 16 14 12 12 12 12 11
18 17 16 16 16 16 15 13 13 13 13 13 13 12 13 12 11 11 11 10 8 7 7 7 8 9 10 11 11 12 12 13 13 12 11 12 15 16 15 13 13 13 13
16 16 16 16 15 15 14 13 12 12 13 13 12 10 9 9 8 7 6 6 5 5 4 5 6 6 6 8 10 11 12 13 14 13 12 15 14 14 14 14 14 15 15
17 17 16 15 15 15 14 13 12 12 12 11 10 9 7 6 5 4 2 2 2 3 3 4 4 4 6 8 10 10 11 13 13 14 13 17 17 17 15 14 16 16 16
19 18 17 15 14 12 11 10 10 10 9 9 8 6 6 5 4 3 2 0 1 2 3 4 4 5 6 7 9 11 12 13 13 12 14 16 16 17 17 16 16 16 20
17 18 15 13 11 9 8 7 7 7 7 7 6 6 6 5 4 3 2 1 1 2 3 4 5 5 7 9 11 13 14 13 13 13 14 17 18 18 18 17 16 16 18
15 15 13 11 9 7 4 2 4 5 7 8 7 6 6 5 3 2 3 2 1 2 3 5 5 6 8 11 12 14 14 15 16 14 14 17 17 19 19 19 18 18 17
13 14 13 11 7 4 1 3 5 9 11 12 10 6 4 2 3 3 3 3 3 5 7 7 7 8 10 12 13 15 16 14 14 16 13 13 15 15 16 16 18 19 20
10 12 12 11 9 9 10 10 8 8 8 9 11 5 1 1 2 3 4 5 6 7 8 9 11 12 11 13 13 13 13 13 12 11 8 8 9 10 12 13 14 16 18
11 11 16 19 20 19 16 15 16 17 12 5 2 2 3 5 5 6 6 7 7 9 11 12 14 12 12 11 12 13 12 11 6 5 7 7 9 11 14 16 17 18 18
13 17 20 22 20 15 12 5 14 5 2 6 10 12 11 10 8 7 7 8 9 12 14 15 14 14 13 12 13 12 11 10 4 5 8 8 10 13 15 18 20 20 21
17 21 24 20 13 6 10 4 9 11 13 12 11 10 8 7 6 8 10 12 14 15 14 14 11 10 8 8 13 9 13 9 4 6 9 10 12 13 13 15 17 18 21
20 21 21 17 11 9 16 22 19 14 12 9 7 5 4 5 7 10 12 13 15 14 14 13 10 10 10 11 9 13 11 7 5 5 9 10 12 12 15 16 16 18 18
19 20 18 15 17 19 21 18 12 14 8 7 5 4 4 6 9 12 14 14 13 10 11 11 11 11 10 9 9 12 5 7 4 11 10 11 10 15 14 15 16 16 17
18 20 22 22 21 18 14 12 10 8 6 4 3 1 4 7 11 13 13 11 12 13 11 11 9 8 9 8 6 6 5 4 16 10 17 10 20 17 17 17 17 16 13
20 20 20 19 18 17 15 7 5 3 3 3 2 2 4 9 11 12 12 11 12 13 10 9 7 7 6 9 9 7 8 11 6 8 10 15 19 20 20 17 16 15 12
18 19 17 15 13 10 7 3 2 1 1 2 2 2 5 10 11 12 12 13 13 13 11 8 6 5 5 7 8 8 9 12 13 10 10 16 18 16 17 16 16 14 12
10 11 11 13 9 6 3 2 1 2 3 2 2 5 6 10 12 13 14 16 15 13 11 9 8 7 7 7 8 9 10 9 11 11 8 15 18 19 17 14 13 14 13

GFSSE_925_spd_042.txt.gz
Wind_Speed
19 20 20 20 21 22 22 22 22 21 21 19 17 16 15 14 12 12 11 10 10 12 13 11 10 9 9 9 10 11 11 11 10 9 8 7 8 11 9 9 8 7 10
20 20 21 20 21 21 21 21 21 20 19 18 16 15 13 12 11 10 10 10 12 12 12 11 10 10 10 11 11 11 11 11 10 10 8 5 8 10 10 11 9 8 9
21 19 20 20 21 21 20 20 19 18 18 17 15 14 12 11 10 10 9 10 11 13 12 12 12 12 13 14 15 14 13 12 12 11 10 5 7 10 8 11 11 10 10
19 20 19 21 20 20 20 19 19 18 17 15 14 12 12 11 10 10 10 11 12 13 12 12 13 13 14 14 15 16 15 14 13 12 8 6 5 9 9 11 14 13 9
19 18 18 21 20 20 19 19 18 16 15 14 12 12 11 11 11 10 11 12 12 12 12 12 12 13 14 14 15 15 15 15 16 11 10 8 7 10 9 9 10 11 11
17 16 19 20 20 20 19 17 16 15 14 13 11 12 11 11 11 12 12 12 12 12 12 12 13 14 15 15 16 15 14 14 13 10 10 10 10 11 11 11 11 10 10
17 15 16 18 18 19 17 15 14 14 13 12 12 11 11 12 12 12 12 12 13 13 15 15 14 14 14 13 14 14 15 14 10 10 9 9 11 11 12 11 10 10 10
18 16 14 15 16 15 15 14 14 13 12 12 12 11 12 12 11 11 11 12 13 13 13 13 13 12 12 11 12 13 13 12 11 11 10 9 14 12 11 11 12 11 11
16 15 14 12 12 13 12 12 12 12 11 11 11 12 11 12 11 11 11 11 11 10 10 9 10 10 9 10 11 11 11 13 11 11 10 10 13 14 14 12 11 12 12
15 14 14 12 11 11 11 12 12 11 12 12 12 12 11 11 10 10 8 7 7 6 6 5 5 6 7 9 10 11 11 11 10 10 9 10 13 13 14 14 13 13 14
14 13 12 12 11 10 10 10 10 11 11 11 10 10 10 7 6 5 5 4 4 3 2 3 3 3 4 7 8 9 10 10 11 11 10 14 16 16 15 15 14 14 15
15 12 11 10 10 10 9 9 8 8 7 6 6 5 4 4 3 3 2 0 1 1 2 3 3 4 5 6 7 9 8 10 11 12 11 15 16 18 18 17 16 15 16
15 12 11 10 9 9 8 8 7 6 5 4 3 2 1 1 1 2 2 2 2 1 1 3 4 4 4 5 6 7 8 10 11 13 13 16 16 17 18 19 18 16 15
13 13 12 11 10 8 8 7 6 5 3 3 1 1 2 3 4 3 2 2 2 2 2 3 4 4 5 6 7 8 9 11 12 14 14 17 17 17 16 17 18 18 18
13 13 12 11 10 8 8 5 4 2 0 0 1 2 2 3 2 2 0 2 2 3 3 4 5 6 7 9 10 12 13 14 14 14 15 18 17 15 14 13 15 17 17
12 12 11 10 9 9 9 10 7 5 3 2 3 8 6 5 2 1 2 1 1 3 4 6 7 9 11 13 15 16 17 16 15 14 14 13 15 13 11 11 12 13 14
10 12 12 12 12 13 14 14 11 10 10 8 3 4 1 4 4 4 3 2 3 5 6 8 10 12 14 15 17 17 18 17 15 13 11 10 11 13 15 14 14 15 15
12 15 15 15 15 14 11 10 17 15 12 4 3 5 5 6 7 7 5 5 5 6 9 10 12 14 15 16 16 17 18 16 14 12 10 9 9 11 13 17 18 18 18
16 19 19 19 17 16 12 11 12 10 3 6 9 10 9 9 7 6 5 5 7 8 9 11 13 13 15 16 17 19 18 18 17 13 11 9 9 11 13 14 19 18 20
18 21 22 20 20 16 6 2 8 8 8 10 9 8 7 6 6 5 5 6 8 9 10 10 12 13 14 14 17 19 17 20 18 12 10 13 12 12 13 15 16 16 19
17 18 19 19 18 16 9 8 9 10 8 6 5 6 5 5 6 7 7 8 8 8 9 11 13 15 16 15 18 19 19 16 11 12 15 13 15 16 16 15 15 16 18
17 18 17 14 11 10 12 11 9 10 6 5 5 4 4 5 5 5 5 6 8 11 12 12 13 15 16 14 15 20 9 16 20 7 17 17 16 16 18 18 18 19 18
17 18 17 15 17 15 14 10 8 7 7 6 4 3 3 3 2 5 8 9 10 11 12 13 13 14 16 17 13 13 10 10 19 20 15 18 17 20 18 19 19 18 18
18 19 20 19 17 14 13 10 9 4 3 1 2 3 2 2 5 6 7 8 9 12 13 14 15 14 15 18 17 16 15 18 9 10 19 21 22 19 20 21 20 21 19
16 16 16 15 12 11 9 5 4 3 3 3 3 3 2 4 5 7 8 9 12 15 16 16 16 16 16 15 17 16 15 17 17 15 10 18 21 20 19 21 21 21 20
13 12 12 12 12 8 6 6 5 5 4 3 3 5 6 8 9 10 12 13 15 17 18 18 17 16 16 16 15 14 13 15 16 14 12 16 20 23 20 21 20 18 20

GFSSE_925_spd_048.txt.gz
Wind_Speed
27 26 22 21 21 22 23 22 21 21 19 18 17 15 15 15 14 13 13 14 15 16 16 16 16 16 16 15 15 14 13 11 9 7 10 10 11 13 16 16 17 16 16
30 26 23 22 22 23 23 23 22 21 18 17 16 15 14 13 12 13 14 15 17 17 17 17 17 17 17 17 16 15 13 11 8 6 8 11 13 14 15 18 18 16 15
29 26 24 23 24 24 23 22 20 19 17 16 15 14 13 12 13 13 15 16 17 17 17 16 17 17 17 16 15 14 13 10 9 8 3 10 14 16 18 18 17 15 15
26 27 24 23 23 23 22 20 18 18 17 15 14 13 13 13 13 14 14 15 16 16 15 15 16 16 16 15 14 13 11 10 11 13 21 15 17 19 15 14 14 14 13
25 25 26 23 22 21 21 19 17 16 15 14 13 13 12 13 13 13 14 13 14 14 14 15 15 15 16 16 16 13 11 13 15 14 10 13 16 16 16 14 13 14 14
23 24 24 21 22 19 21 17 15 14 14 13 13 12 12 12 13 12 12 13 13 14 15 15 14 14 16 16 18 16 16 18 21 18 14 13 16 16 15 14 14 13 12
23 23 22 18 19 18 18 16 15 15 14 13 12 12 12 12 12 11 12 13 14 15 14 13 13 13 15 15 16 17 15 16 16 15 12 18 16 14 14 15 15 14 13
23 17 21 19 18 18 16 16 15 15 14 13 12 11 12 12 11 12 12 13 13 13 12 11 11 12 12 14 15 15 16 17 17 13 11 17 17 16 15 14 14 14 14
18 20 20 20 19 17 16 16 15 15 14 13 12 12 11 11 12 12 11 10 9 9 8 8 8 9 10 12 14 14 12 13 17 17 10 16 16 16 16 16 15 14 12
19 20 21 19 18 18 16 14 14 15 13 13 13 13 12 13 13 11 8 6 6 5 5 5 6 8 8 8 9 14 12 13 13 16 11 16 16 18 19 17 18 16 14
21 24 22 20 18 15 16 15 14 14 13 14 14 14 13 10 8 7 5 3 3 3 4 6 8 8 9 11 6 11 14 12 13 14 14 14 19 21 21 19 17 16 16
18 23 23 22 15 18 15 16 14 15 15 12 11 9 6 6 7 4 0 2 3 6 3 6 6 9 9 10 12 13 14 14 16 17 17 19 20 19 20 21 18 16 15
23 21 20 20 16 19 16 19 14 13 12 10 5 3 9 4 3 4 3 3 2 3 4 7 8 6 11 10 12 13 14 15 16 17 19 21 18 19 19 19 15 15 16
24 21 20 18 14 19 17 16 14 16 14 11 9 4 4 4 4 1 3 4 2 8 9 7 9 10 11 12 14 12 16 16 16 17 18 19 22 20 18 19 15 14 16
24 22 21 19 17 18 14 16 15 12 11 8 4 2 2 1 2 0 3 5 7 5 11 10 10 10 14 15 18 20 17 19 18 19 18 18 20 21 14 14 16 15 17
24 24 23 21 20 15 19 17 15 16 13 9 5 1 3 2 4 3 2 9 9 4 7 9 13 14 15 17 19 20 21 18 17 18 17 16 18 16 10 12 14 16 19
25 24 24 23 20 21 22 20 15 15 13 9 6 5 4 5 3 7 7 6 6 9 10 10 13 14 16 17 18 20 20 19 20 21 19 18 18 10 13 16 17 17 20
27 24 23 22 24 25 23 21 21 17 10 8 6 6 7 8 9 8 6 8 9 7 7 9 12 14 16 18 18 20 16 19 21 21 20 20 12 10 14 10 15 18 22
27 24 23 24 26 23 22 16 10 9 8 8 9 8 10 9 7 7 7 4 6 5 7 7 11 13 16 18 19 21 21 21 21 23 24 17 17 8 9 13 14 19 18
27 28 22 24 23 19 16 8 5 6 4 5 9 8 9 7 6 4 3 2 4 6 7 10 9 12 15 18 20 20 20 19 22 20 21 13 11 9 12 15 13 17 14
27 28 28 22 19 16 11 10 9 10 10 10 8 7 7 7 4 4 3 4 4 7 8 9 10 13 14 18 19 22 16 19 19 20 19 21 22 19 19 16 17 16 14
25 26 27 22 17 18 13 11 13 13 12 12 12 10 8 7 5 2 3 3 6 8 10 10 13 15 16 14 21 21 6 14 13 22 22 21 20 20 21 23 24 18 12
19 21 20 19 19 19 17 16 18 16 16 15 13 13 11 7 3 1 1 4 5 7 10 14 14 14 18 20 18 15 6 4 16 15 20 23 25 22 21 22 16 21 17
15 17 21 23 22 18 19 19 19 16 15 15 16 16 11 9 5 2 3 5 6 8 11 13 16 19 18 18 17 16 20 19 5 7 7 18 19 17 21 22 22 19 22
20 25 26 24 20 20 16 16 16 9 12 10 6 9 7 7 9 8 8 9 7 8 12 15 15 18 19 19 15 16 17 16 15 10 7 11 19 18 19 22 20 23 20
27 23 23 22 20 19 13 13 16 10 10 10 8 7 5 9 4 4 2 5 9 14 13 16 18 20 21 20 17 16 14 8 11 13 5 10 13 18 18 18 20 23 25

GFSSE_925_spd_051.txt.gz
Wind_Speed
26 24 24 25 24 24 24 24 25 25 24 23 22 21 20 19 19 18 18 20 19 19 19 19 19 20 20 19 18 17 16 15 14 15 15 15 18 19 19 18 18 19 18
33 26 25 25 24 24 25 25 26 24 23 23 22 21 19 18 18 18 19 19 19 18 19 19 20 20 20 20 19 17 16 17 14 11 14 17 17 20 20 20 18 17 17
35 28 26 27 27 25 24 25 25 24 23 23 22 20 18 18 18 18 19 19 20 19 19 19 20 20 19 19 18 16 16 20 16 9 16 18 17 18 19 19 19 17 16
36 32 30 30 29 26 23 24 24 22 23 23 20 19 18 18 18 18 18 18 18 18 18 19 20 21 22 20 18 17 21 27 19 25 18 15 18 18 18 18 17 17 17
32 36 32 31 29 28 22 22 22 21 21 21 21 20 19 19 18 17 17 17 17 18 18 20 21 22 23 23 19 19 25 26 23 19 17 18 19 18 17 16 16 15 14
36 37 33 30 29 27 24 22 21 20 20 20 20 20 19 18 18 17 16 16 17 17 18 20 20 20 21 21 20 19 22 25 16 18 18 19 18 18 17 17 16 15 14
36 36 31 29 28 25 23 22 20 20 20 19 19 20 19 18 18 17 17 18 17 17 17 18 18 19 19 20 19 19 19 24 16 16 18 19 18 17 16 15 16 16 16
23 30 28 24 24 23 22 21 20 19 19 18 19 19 18 17 17 17 17 16 15 15 15 15 15 15 15 16 17 16 17 20 19 9 14 17 16 17 17 17 16 15 14
24 19 20 20 20 21 22 21 19 20 19 18 18 19 18 17 16 15 14 13 13 12 11 11 11 11 11 14 17 17 16 15 23 5 13 16 16 16 17 18 18 17 15
24 25 17 20 23 23 22 20 19 19 18 19 19 19 18 17 15 12 11 10 9 8 8 9 10 9 11 10 12 17 12 12 16 18 12 16 17 16 17 18 19 19 16
22 24 26 23 23 23 22 20 19 18 19 20 20 19 17 14 13 10 9 7 7 6 7 9 11 9 10 13 8 12 14 14 14 19 14 18 16 14 16 17 19 16 15
19 20 22 24 24 23 22 20 19 20 21 20 18 15 13 10 7 6 6 6 6 5 6 8 7 9 9 10 13 13 14 16 14 14 19 21 17 15 13 15 16 15 15
24 21 24 24 25 23 22 22 22 21 20 16 11 8 11 10 10 5 3 3 1 4 6 5 10 10 9 9 13 12 14 13 11 14 16 18 17 14 11 13 14 14 15
22 28 24 24 23 26 24 23 20 19 17 14 13 11 9 10 8 6 6 3 10 13 13 11 8 7 8 9 12 14 15 16 15 14 17 17 13 15 11 10 12 14 16
28 26 22 25 26 21 21 20 19 22 20 17 13 10 8 6 8 10 10 14 11 8 6 5 7 9 10 11 11 14 16 15 12 13 18 16 16 15 12 7 10 12 15
28 26 24 21 22 20 26 25 25 22 19 13 11 7 7 9 8 9 11 11 9 7 6 7 8 8 10 12 14 15 16 16 18 19 18 19 20 14 4 6 8 12 14
29 28 27 22 21 26 23 18 16 16 14 14 13 10 7 9 9 8 9 8 8 9 8 6 6 9 11 12 13 13 16 18 18 15 18 20 20 10 7 5 8 12 12
35 30 27 23 25 24 22 18 16 16 14 12 10 12 13 12 10 10 8 10 9 7 6 5 8 12 12 13 15 15 18 18 17 18 22 19 17 7 3 5 6 10 10
35 31 27 29 27 23 20 21 21 16 12 12 14 15 15 13 10 8 9 9 7 4 5 8 10 9 11 13 15 15 16 18 16 18 17 19 18 15 11 11 13 13 9
36 36 33 30 28 26 26 20 13 12 12 12 15 16 15 14 11 6 7 7 6 7 7 7 6 9 12 14 13 16 20 14 16 20 17 18 18 17 16 16 16 15 11
39 37 38 37 32 27 22 14 12 13 14 15 15 14 13 11 10 12 10 8 6 5 7 7 11 13 12 13 18 22 17 7 15 10 18 19 20 19 19 17 18 12 12
40 39 38 35 29 23 18 15 13 17 18 17 15 13 13 11 8 7 5 3 2 3 4 9 11 11 11 18 15 15 4 14 3 22 21 22 17 18 13 14 13 16 16
29 37 35 31 26 21 21 18 16 18 20 18 14 15 14 10 8 4 5 3 0 3 6 9 10 13 13 15 14 8 3 2 12 5 23 6 15 17 16 16 16 15 15
29 29 28 25 22 24 23 24 26 23 24 23 18 17 14 12 11 9 6 5 5 3 4 7 9 11 14 16 17 15 13 12 2 6 2 19 11 17 20 21 18 16 14
29 28 25 23 22 25 22 28 26 25 23 19 19 18 16 13 10 8 8 6 4 2 3 6 10 14 15 17 18 14 11 14 15 4 5 5 16 16 18 17 16 15 21
30 26 24 25 25 22 27 26 25 18 20 23 24 22 16 13 10 9 9 6 1 3 7 11 15 16 16 19 20 16 11 6 5 9 6 7 15 17 15 10 17 21 19

GFSSE_925_spd_054.txt.gz
Wind_Speed
29 31 28 30 27 25 25 25 25 25 25 25 24 24 22 21 21 21 22 22 22 21 20 21 21 21 21 22 23 22 20 18 18 19 21 21 21 23 22 20 20 20 19
36 34 33 33 30 27 26 26 25 24 24 24 23 23 21 22 22 22 23 23 22 20 20 21 21 21 21 24 24 20 14 12 15 19 19 20 20 21 21 19 18 18 18
30 34 34 35 34 27 27 26 25 24 24 23 22 22 22 22 23 22 23 23 22 20 21 23 23 23 24 27 29 20 18 19 21 19 19 19 20 20 19 18 18 18 17
30 32 35 35 32 30 27 25 26 23 23 23 21 23 23 22 23 22 22 22 22 22 24 25 26 26 26 30 32 30 26 26 20 18 19 21 21 19 19 19 18 17 16
27 32 35 36 34 30 27 25 24 23 22 22 21 24 24 22 22 21 21 22 23 24 25 25 26 26 25 28 32 25 24 21 19 20 22 21 21 19 19 20 19 18 17
28 33 32 37 36 32 27 26 24 24 22 21 22 23 24 23 21 20 22 23 23 24 24 26 26 25 25 23 29 27 20 17 19 20 21 21 21 18 19 18 17 17 17
24 32 31 31 31 28 27 24 23 22 22 23 23 23 23 22 21 21 22 22 23 22 22 23 22 22 22 20 21 27 25 17 17 18 18 18 18 17 18 18 17 16 15
22 22 23 25 26 24 25 23 23 22 22 22 23 23 23 23 22 20 21 21 20 19 19 18 18 19 20 20 19 23 24 19 12 15 16 16 14 15 15 16 17 16 14
29 26 23 20 21 21 21 22 22 22 22 23 23 23 23 22 21 19 19 18 16 15 16 16 14 15 14 15 15 16 19 18 18 11 15 15 13 14 14 15 17 16 15
27 27 28 20 14 20 21 21 22 22 22 22 22 23 22 21 19 17 16 14 13 14 14 14 13 13 11 9 9 11 13 16 15 11 15 14 12 13 13 15 16 16 15
26 28 26 20 22 23 23 22 21 22 22 22 22 22 21 20 17 15 13 12 12 13 13 13 11 12 11 11 11 11 13 15 12 12 14 15 13 11 12 14 14 15 15
23 23 24 22 24 25 23 23 23 24 24 24 23 20 17 16 14 12 11 10 10 9 9 10 11 10 9 9 10 10 11 11 9 12 12 13 11 8 9 11 12 14 13
29 27 25 21 23 22 23 24 23 23 23 21 17 16 14 11 11 10 8 7 8 7 8 12 12 10 9 8 9 11 10 11 10 10 12 11 9 7 6 9 11 11 11
25 25 24 25 23 23 23 24 24 23 20 16 11 10 10 10 10 7 6 7 12 13 16 12 9 6 6 8 10 12 13 12 12 14 14 11 10 8 4 6 10 10 9
23 18 25 25 25 26 26 25 23 21 17 15 14 15 14 16 15 13 13 16 17 13 10 8 6 7 9 10 11 12 14 14 14 15 14 13 11 5 1 6 8 7 8
18 26 27 28 27 26 24 22 19 17 18 17 14 13 12 14 13 14 17 15 13 8 7 6 8 10 10 11 11 11 12 14 16 16 15 15 13 6 2 5 5 6 5
28 29 29 31 27 25 23 22 22 25 21 16 13 11 12 13 15 16 15 13 10 6 4 5 7 9 10 10 10 9 12 13 15 19 19 15 7 0 3 6 6 7 5
34 30 28 28 30 29 27 27 24 21 17 15 13 13 13 13 13 14 12 10 8 6 4 6 8 8 8 9 10 9 12 15 13 13 14 21 17 8 6 6 9 7 4
34 33 28 29 31 30 27 24 21 18 16 14 13 14 15 15 13 13 11 10 7 5 4 6 5 6 8 7 7 7 15 10 11 8 13 15 14 11 9 7 9 7 5
36 37 31 32 32 29 25 21 19 16 13 14 16 17 16 15 14 12 12 10 8 5 4 4 4 6 4 8 10 15 14 5 6 8 13 16 15 11 10 10 10 4 3
34 39 37 35 31 28 26 23 18 16 16 15 15 17 17 14 12 12 12 12 8 4 3 3 4 5 7 13 6 17 2 5 12 10 27 16 14 10 9 9 8 10 8
37 39 38 36 32 30 30 25 15 14 15 16 18 18 17 15 15 13 11 10 8 5 3 2 5 5 7 9 8 6 3 8 4 25 2 18 11 14 16 10 11 13 10
30 37 40 40 36 30 26 18 11 16 17 20 21 20 20 16 13 11 10 9 5 1 1 2 3 4 4 8 9 4 3 2 8 1 19 3 13 12 12 15 14 11 8
37 38 38 37 32 28 25 22 21 27 23 25 26 24 21 14 12 10 9 8 5 4 3 1 3 6 9 10 12 9 10 12 2 4 1 15 8 16 16 15 12 7 11
36 40 38 34 32 29 28 24 25 26 28 26 26 24 20 17 14 13 11 8 8 6 2 1 6 9 9 10 12 14 12 11 9 5 4 2 15 15 15 14 10 12 15
36 38 34 35 34 30 29 25 30 29 29 24 26 26 22 20 17 12 9 10 5 1 3 7 10 12 13 15 16 15 14 7 6 7 4 12 14 18 14 11 11 15 18

GFSSE_925_spd_057.txt.gz
Wind_Speed
28 26 27 27 27 28 30 30 28 27 28 27 27 25 25 24 25 24 24 24 23 21 21 22 22 23 23 20 19 19 20 20 21 22 20 23 22 21 21 21 22 21 20
31 29 29 29 28 29 30 31 27 25 25 25 25 25 25 25 26 27 25 24 21 21 22 23 24 25 21 16 15 17 20 22 21 20 20 21 21 20 21 21 21 22 22
33 31 31 30 30 30 29 30 27 23 22 22 24 25 25 26 27 27 26 24 22 22 23 25 27 28 27 28 26 25 24 21 20 21 23 22 22 20 21 21 21 21 21
31 31 30 30 30 29 28 29 28 22 21 22 24 25 25 26 26 26 27 25 24 23 24 26 31 34 31 31 29 28 22 21 22 23 23 23 23 20 22 21 21 20 19
30 31 31 30 30 28 25 26 25 22 21 22 25 25 25 25 25 27 28 27 27 26 27 28 31 32 30 26 24 22 22 22 23 23 23 22 22 20 21 21 20 19 18
26 29 31 31 31 31 24 25 25 21 21 22 24 24 23 24 25 27 28 28 28 27 26 26 29 30 29 28 25 21 22 21 21 22 21 20 20 18 20 20 20 19 18
26 28 29 28 28 30 24 24 24 22 21 22 24 24 23 24 27 27 28 27 26 25 24 23 22 27 27 27 26 22 18 18 17 19 18 18 17 17 18 19 19 18 16
22 27 26 26 21 26 22 22 23 22 21 22 23 23 23 25 26 26 26 24 22 21 20 21 21 20 24 23 23 21 18 15 15 16 16 16 15 15 16 17 17 18 17
25 27 26 21 17 20 18 20 20 21 21 21 22 22 23 24 24 24 23 21 19 18 18 17 16 15 17 19 18 17 17 16 14 16 15 13 12 12 13 15 15 16 16
28 27 25 22 20 17 19 20 19 20 20 20 21 22 23 22 22 20 19 18 17 16 15 14 16 15 12 12 15 15 14 14 13 13 13 11 9 9 11 12 13 14 14
27 29 30 28 20 14 16 17 19 20 21 20 21 21 20 19 19 17 17 16 16 15 14 13 13 13 11 10 10 10 11 11 10 10 10 9 8 7 9 10 11 11 12
24 30 29 27 20 17 20 20 20 21 22 21 22 20 19 18 16 15 15 14 12 12 11 12 12 12 11 11 10 11 13 11 12 11 9 8 8 6 7 8 9 9 10
30 25 22 24 20 22 21 21 21 21 20 22 21 19 17 15 14 13 13 11 9 9 11 11 11 12 11 9 9 10 11 12 13 13 10 7 6 5 4 6 7 8 9
30 31 29 25 21 22 20 21 21 22 21 20 17 16 14 14 11 11 10 10 10 13 14 12 11 10 9 9 9 8 10 12 12 11 10 6 5 4 1 4 5 6 8
22 22 28 21 24 21 21 20 21 21 19 17 16 14 12 14 12 12 11 14 15 14 12 10 9 7 9 10 10 10 13 14 12 11 11 9 7 2 1 3 3 4 5
24 23 24 23 24 22 24 23 23 21 18 16 15 14 14 15 14 15 18 18 15 11 10 9 9 8 10 10 10 11 12 13 14 14 14 11 4 4 6 4 4 4 3
25 23 25 28 26 25 25 24 22 20 19 16 15 13 14 16 17 19 19 16 14 10 8 9 8 8 9 11 11 9 11 14 10 12 14 9 6 9 8 6 5 3 2
24 23 28 27 26 25 25 24 22 23 19 16 14 15 16 16 17 18 17 15 13 10 6 6 8 10 11 10 9 9 12 11 8 12 15 18 14 8 4 6 5 3 1
23 29 32 30 28 27 26 24 24 22 18 16 14 14 16 16 18 16 15 15 11 7 5 6 8 9 7 8 5 8 12 2 7 10 14 13 11 9 9 8 8 6 4
24 28 29 31 29 27 26 25 23 20 17 15 14 15 18 19 17 16 14 13 9 6 5 5 6 6 5 5 3 14 5 6 5 5 15 11 10 9 5 6 3 3 3
26 30 30 32 31 31 29 26 22 20 17 17 18 21 19 19 17 14 13 11 8 4 4 3 2 4 3 7 4 10 3 8 6 4 21 9 16 7 8 9 6 6 4
33 34 31 33 35 33 31 28 24 22 19 20 22 20 18 17 16 13 10 9 8 5 5 5 4 2 3 7 5 3 2 5 4 18 4 11 0 7 12 11 11 10 8
37 39 38 38 38 36 32 27 19 21 16 19 21 20 19 16 15 13 10 9 9 7 8 5 3 3 3 3 4 2 2 3 5 2 8 2 10 14 11 13 12 11 6
43 41 41 40 40 38 33 29 25 24 18 21 24 23 21 18 15 13 11 10 9 9 8 6 4 3 4 3 4 2 6 10 3 3 4 9 9 11 19 14 13 10 8
29 35 36 36 37 37 32 29 24 19 19 19 24 23 21 18 16 15 13 13 10 8 6 3 2 3 3 3 4 5 7 8 10 9 4 6 9 15 17 15 15 12 10
28 30 35 40 41 36 33 28 24 21 22 21 23 22 21 18 14 13 12 11 7 4 2 3 4 6 6 8 9 10 10 6 5 8 5 8 10 12 16 12 14 8 11

GFSSE_925_spd_060.txt.gz
Wind_Speed
27 31 31 31 31 33 33 33 33 32 31 28 26 25 24 24 26 26 28 27 25 23 23 23 23 23 21 21 23 24 23 22 22 22 23 23 23 22 22 22 23 22 21
32 32 31 32 33 34 34 34 32 30 30 27 25 24 25 27 27 28 29 28 26 24 24 22 19 17 18 21 24 23 23 22 24 25 24 23 22 21 21 21 21 22 21
32 33 33 33 34 33 33 32 30 28 27 26 25 25 27 28 28 28 30 29 29 26 24 24 25 27 26 26 25 21 22 24 25 25 25 25 23 21 21 21 21 21 20
32 33 33 32 32 32 31 30 29 26 26 26 25 26 27 28 28 28 31 31 31 28 26 28 30 30 29 27 24 22 23 23 24 24 24 24 22 20 20 20 20 19 19
29 31 30 30 31 31 30 27 25 24 26 25 25 26 27 29 29 29 31 32 30 28 29 29 27 28 27 24 23 23 22 22 22 22 22 21 21 18 19 20 20 19 18
26 30 29 29 30 30 29 27 25 23 26 26 25 25 25 27 30 31 31 32 31 28 30 28 27 26 24 24 22 22 21 20 20 20 19 18 18 16 18 19 19 18 17
25 28 29 30 28 28 26 23 24 22 26 25 24 23 25 28 31 30 30 30 30 28 28 28 27 27 25 23 20 18 18 18 17 16 16 16 16 15 16 17 18 18 17
25 26 29 27 27 24 19 18 21 22 22 22 23 22 25 28 30 29 27 26 26 28 25 25 25 25 24 21 19 17 15 15 15 15 15 14 13 13 14 16 17 18 17
22 27 29 28 28 24 22 18 19 21 23 21 20 22 25 26 27 26 23 22 22 22 21 22 22 22 21 19 17 16 14 13 13 14 12 11 11 11 12 14 16 18 16
27 28 23 25 32 27 17 16 20 18 20 20 20 23 24 24 23 22 19 18 18 19 19 20 20 18 17 15 14 13 12 10 11 11 11 10 9 9 10 12 14 15 15
22 29 29 30 24 25 20 12 15 18 18 19 20 22 22 22 21 18 17 17 17 17 17 16 16 16 15 14 13 12 10 8 7 8 9 9 7 8 9 10 11 12 13
30 27 40 31 22 21 14 15 16 19 20 20 22 21 20 19 18 17 16 15 16 14 14 14 13 13 12 13 14 13 12 10 10 9 8 8 7 6 5 7 8 9 11
39 33 26 33 30 18 16 16 18 19 20 21 21 21 19 18 17 15 14 14 14 13 14 14 12 12 11 10 10 11 10 8 9 9 6 4 5 3 3 5 6 8 9
26 36 30 33 26 16 17 17 18 19 21 22 21 19 18 16 15 14 12 12 14 13 14 12 12 11 10 10 10 10 9 8 8 9 7 5 1 3 3 4 5 6 7
28 28 35 26 20 19 19 19 20 22 20 20 18 18 15 14 13 13 13 14 15 14 13 12 11 11 11 10 11 11 10 10 12 12 11 7 2 3 3 3 4 4 5
24 21 30 23 19 20 20 20 21 21 19 18 16 15 13 15 14 14 16 17 17 14 12 11 11 11 12 9 10 11 12 12 12 12 11 6 5 8 8 6 5 3 2
21 23 28 22 20 22 20 21 21 22 19 16 15 15 14 16 17 18 18 17 15 13 10 9 10 10 9 9 10 10 12 10 9 13 12 10 8 7 5 5 6 4 2
25 22 18 20 22 20 21 21 21 19 17 17 16 15 17 17 18 18 18 17 15 12 8 8 8 8 9 9 8 8 9 7 11 11 12 12 10 7 5 6 5 5 5
25 22 19 20 23 22 21 21 21 19 19 19 16 16 15 18 17 17 18 17 13 11 9 6 8 6 9 7 5 9 3 9 8 8 10 9 8 10 10 8 8 9 10
26 21 22 22 24 24 23 22 20 21 20 15 15 15 16 18 19 18 17 16 14 12 9 7 7 7 6 4 2 7 3 12 7 4 12 9 12 12 5 9 10 10 9
26 23 24 28 26 26 25 23 22 22 19 17 16 16 19 19 19 18 18 16 13 9 6 5 7 7 4 4 1 2 3 11 6 2 12 5 8 5 7 8 10 11 12
30 28 28 31 32 31 30 29 25 24 19 18 18 18 19 19 18 18 16 14 12 8 7 7 6 6 4 5 4 2 3 4 7 8 10 5 3 7 10 10 16 14 13
33 34 34 33 33 33 33 29 22 22 18 19 20 20 20 19 18 16 15 13 12 9 9 8 5 3 4 3 3 1 1 3 4 4 10 5 5 7 9 15 13 13 13
30 31 33 33 33 35 33 32 31 32 22 22 23 23 21 21 19 18 16 14 13 10 8 7 6 2 3 1 1 4 5 7 2 3 6 9 12 9 13 16 14 13 12
31 33 32 33 34 37 37 36 33 28 24 20 24 25 23 20 19 17 16 15 12 9 6 3 1 2 4 3 2 4 7 11 12 10 3 8 10 15 15 17 16 14 9
26 30 32 35 37 36 36 36 33 25 24 20 24 27 24 20 18 16 14 12 12 10 3 2 5 4 4 4 5 8 10 8 7 10 5 10 12 14 12 14 12 12 7

GFSSE_925_spd_063.txt.gz
Wind_Speed
27 27 31 32 33 34 37 38 37 35 32 30 28 25 23 23 24 24 26 25 26 24 25 24 23 24 24 25 24 24 22 24 24 24 23 21 20 20 21 21 21 20 21
32 30 32 34 34 34 35 36 35 33 30 28 26 25 24 25 28 26 27 27 27 24 24 23 22 25 25 25 24 24 25 25 25 24 24 21 20 20 20 19 19 19 20
33 30 31 34 35 34 34 34 32 30 28 26 26 27 29 29 28 27 28 28 26 24 23 22 22 26 25 23 24 24 25 25 24 24 23 19 18 20 20 20 19 19 18
33 32 30 33 34 33 33 32 29 27 27 27 28 30 30 29 29 28 31 28 26 26 27 28 27 27 25 23 24 24 24 22 21 21 18 16 17 18 19 19 19 18 17
31 32 31 34 34 33 32 31 29 28 28 29 30 31 30 30 30 30 31 28 28 27 29 28 28 26 24 24 23 22 21 20 19 17 16 15 15 17 17 18 17 16 16
32 32 35 36 36 34 32 30 30 30 29 29 31 31 30 31 31 29 29 28 29 26 27 27 26 25 24 23 21 20 18 17 17 15 15 15 15 15 16 17 17 16 15
31 33 33 35 35 34 31 31 30 30 30 29 29 29 31 30 29 27 27 27 27 27 25 25 25 24 23 20 19 18 17 14 14 13 13 13 13 14 16 16 17 16 16
30 27 29 30 29 32 28 28 30 31 30 27 28 28 30 30 29 28 27 27 27 27 27 26 25 22 20 18 17 16 14 13 12 12 11 11 12 13 14 15 16 16 16
25 23 27 27 29 31 28 25 28 29 30 27 27 29 28 28 28 26 26 26 26 26 26 25 24 21 19 17 15 14 11 11 11 10 10 9 10 10 12 13 15 15 15
24 28 29 33 31 19 28 26 25 26 28 29 27 27 26 25 24 23 23 22 21 22 23 22 20 19 16 15 13 10 9 10 11 9 9 7 8 8 9 11 12 13 14
24 27 29 35 28 26 15 25 20 22 25 27 28 27 26 24 21 18 19 20 22 21 21 19 18 15 14 14 12 10 8 9 8 8 7 7 6 6 7 9 10 12 13
24 26 35 33 31 31 22 16 23 23 24 27 28 27 25 22 20 19 18 18 18 20 21 19 17 15 14 14 12 10 11 10 9 7 6 6 4 4 5 7 9 10 11
30 31 36 35 28 25 21 18 19 20 23 24 25 25 23 21 19 18 18 17 20 18 18 16 14 13 12 11 11 10 8 8 8 7 4 2 2 2 4 5 6 8 9
29 33 41 33 33 27 19 15 18 20 21 24 23 22 22 20 18 17 18 18 17 16 16 13 11 11 10 9 9 8 8 8 7 5 3 1 1 2 4 3 4 5 5
31 34 43 37 27 15 12 14 16 18 21 24 23 20 19 19 19 17 17 18 16 16 14 13 10 8 9 8 8 8 8 7 8 7 6 2 2 5 5 3 2 1 2
24 28 29 19 17 14 18 19 19 19 19 21 20 20 18 16 17 18 20 17 18 16 14 11 9 7 8 7 8 9 8 7 8 8 8 7 6 11 10 6 3 1 1
21 23 20 14 16 16 16 17 17 19 20 21 21 20 17 18 18 20 19 20 18 17 14 11 9 8 7 8 8 8 6 5 7 9 8 7 5 5 3 0 3 3 4
21 20 19 17 14 15 15 17 19 20 21 20 19 21 19 20 20 19 21 20 19 16 13 9 9 8 8 6 6 7 4 5 6 6 6 5 4 2 1 3 5 6 8
23 23 21 20 18 18 16 18 19 21 20 19 19 19 19 19 18 21 21 21 18 14 12 9 9 7 6 5 4 5 2 6 5 4 1 1 2 6 4 4 5 7 9
22 20 20 19 18 19 18 20 21 21 20 19 19 18 16 17 21 21 21 19 17 14 12 9 8 8 5 3 1 4 3 9 7 3 0 1 5 4 3 6 7 10 10
23 23 24 22 22 25 24 22 20 21 21 21 18 16 17 20 22 21 22 19 16 14 11 9 9 6 3 0 2 2 3 9 8 5 4 4 3 1 7 7 9 10 12
24 28 25 25 25 26 25 25 21 21 21 20 19 19 21 21 21 23 20 19 17 14 12 11 8 6 3 2 2 1 1 4 10 12 9 8 4 3 6 7 11 12 11
25 30 30 26 28 27 24 23 20 21 18 19 20 21 22 22 22 21 20 18 17 14 12 10 9 7 5 4 2 3 2 1 6 5 6 7 7 6 8 11 13 12 11
26 23 26 25 26 27 28 24 27 21 18 17 22 25 24 22 22 21 20 19 17 15 13 12 10 7 3 3 3 6 5 3 3 5 4 7 8 11 12 15 15 15 11
24 27 28 26 26 27 29 28 27 20 19 20 22 24 24 24 22 21 21 20 20 18 17 14 9 4 3 5 4 3 5 5 7 8 8 9 9 13 15 16 15 13 9
23 23 27 24 24 25 28 28 28 25 23 19 18 23 23 24 24 23 24 23 22 21 19 14 8 7 5 6 7 5 6 6 7 8 9 13 14 16 13 12 13 10 8

GFSSE_925_spd_066.txt.gz
Wind_Speed
23 26 28 28 31 34 36 37 36 34 33 30 29 29 26 24 22 22 23 25 26 26 25 24 25 24 25 24 23 24 24 24 24 24 23 23 22 21 20 21 18 18 20
26 29 30 30 32 35 38 37 36 33 31 30 29 26 26 24 24 25 25 27 28 24 24 24 23 24 25 24 24 24 23 24 25 21 23 23 23 21 21 21 20 19 19
28 30 29 33 35 35 38 38 36 33 31 30 27 26 26 27 27 26 26 25 24 22 23 24 24 23 25 25 24 24 22 23 24 22 18 18 19 20 20 20 19 18 17
28 30 29 33 35 38 39 37 34 33 30 29 28 28 28 28 29 28 24 22 21 21 23 24 24 24 25 24 22 22 19 20 21 15 15 16 17 19 19 19 18 17 16
30 32 30 36 36 37 36 35 34 31 30 30 30 30 29 30 30 28 26 23 23 26 26 25 24 24 24 23 20 19 18 19 17 14 15 15 14 16 17 16 15 16 15
30 31 32 35 36 36 35 33 31 31 33 33 32 30 31 31 31 29 27 24 25 26 25 25 24 23 22 21 18 17 16 17 12 13 13 15 14 15 16 17 16 16 15
28 28 31 34 34 34 33 31 32 33 34 34 32 31 32 31 30 29 27 24 24 24 25 25 24 23 20 18 16 14 13 13 11 11 12 13 12 15 15 16 16 16 16
15 27 29 33 34 32 30 32 32 34 35 34 33 33 33 33 29 28 25 24 24 24 25 25 24 21 18 16 14 11 11 11 9 10 10 11 12 13 14 15 15 15 16
27 24 27 25 27 30 30 29 32 33 33 34 35 35 33 31 29 26 24 24 24 25 25 24 21 19 16 14 11 9 9 10 8 8 9 9 10 11 12 13 15 15 16
24 27 30 25 33 35 28 20 24 28 30 32 34 34 32 29 27 25 25 24 24 24 23 22 19 18 15 14 10 8 9 11 7 7 8 8 8 8 10 11 12 13 14
27 34 32 36 35 39 38 27 20 23 25 26 31 32 30 24 23 21 18 22 22 21 20 19 17 16 13 11 9 8 9 6 6 6 7 8 6 7 8 9 10 11 13
25 32 37 37 42 36 33 31 17 18 20 19 22 23 22 21 18 18 20 20 20 20 18 17 17 15 11 7 6 8 7 6 5 6 5 6 5 5 6 7 8 10 11
27 29 32 37 32 37 37 29 21 13 15 18 20 21 19 18 19 17 19 18 19 18 16 14 10 8 7 7 5 6 6 6 6 5 3 1 2 2 4 5 6 7 8
24 31 32 36 38 39 36 28 19 13 16 19 19 19 18 16 16 16 15 15 14 12 13 10 9 9 8 7 6 7 7 6 5 4 5 3 3 2 4 3 3 4 4
27 37 33 32 38 31 35 27 24 21 18 17 17 16 16 15 14 14 15 14 13 13 11 10 10 9 7 6 6 7 6 6 5 4 3 2 3 5 4 2 2 1 1
30 25 35 33 39 30 22 21 20 17 17 17 17 15 14 13 14 14 14 13 13 11 10 9 8 7 6 5 6 5 5 5 5 4 4 5 5 11 9 5 3 1 2
24 27 31 23 24 20 15 14 13 15 18 18 17 15 14 12 14 14 14 14 12 11 12 10 7 7 5 4 5 4 3 4 4 5 4 2 2 3 3 3 1 1 2
27 30 26 19 17 15 11 12 12 14 15 16 14 15 13 13 14 16 14 13 13 13 11 9 7 6 5 3 2 2 1 2 3 2 2 1 0 2 6 7 7 8 9
28 25 20 14 10 10 10 11 12 13 14 15 13 13 14 14 15 15 15 15 16 13 10 9 7 6 5 3 1 2 1 3 3 2 2 4 3 5 6 8 9 9 11
25 22 19 17 14 14 12 11 12 14 15 14 13 13 14 14 16 17 16 17 16 13 11 9 8 7 5 2 1 4 4 5 5 6 5 5 5 5 4 6 9 9 13
25 23 22 20 17 15 15 15 16 17 18 15 12 12 13 14 17 18 17 18 16 14 12 12 10 8 4 1 3 5 6 7 9 10 9 9 8 7 6 8 8 10 12
26 26 24 22 19 19 18 18 16 17 17 16 13 13 15 15 17 18 18 18 17 15 15 14 12 8 4 1 3 5 4 6 10 12 12 10 10 9 9 8 10 11 12
26 27 25 23 21 20 18 17 14 14 12 14 13 14 16 17 19 19 19 18 18 16 16 14 12 10 8 6 4 3 2 5 9 8 9 10 9 11 11 12 13 13 14
26 26 27 23 22 20 20 19 19 19 18 18 16 15 15 18 20 21 20 19 19 17 16 14 13 11 7 7 4 8 9 9 5 6 5 9 9 11 13 14 15 15 15
25 25 25 25 23 22 23 23 21 21 18 15 15 16 17 17 20 21 21 20 20 17 16 15 13 11 8 7 8 8 11 11 11 10 8 10 12 13 14 14 16 16 14
27 26 25 26 26 25 25 25 24 22 20 16 18 18 20 18 20 21 21 21 20 18 18 18 16 14 12 10 9 11 11 10 11 12 10 14 14 15 13 13 15 14 14

GFSSE_925_spd_069.txt.gz
Wind_Speed
22 25 25 27 29 34 34 35 34 33 31 29 27 27 25 23 23 23 24 26 28 25 23 24 23 23 23 23 25 25 27 26 25 24 25 24 24 22 20 22 20 20 22
31 28 27 29 30 35 36 36 35 33 31 29 29 27 24 23 24 26 27 29 27 26 24 23 23 22 25 24 25 25 24 24 21 22 25 24 24 22 21 22 20 20 21
30 28 27 31 32 35 36 36 33 32 31 30 28 26 25 25 27 29 29 28 26 25 23 23 23 23 24 25 25 24 24 21 19 17 19 19 20 21 20 20 21 20 20
27 29 27 32 34 35 35 34 33 31 30 29 26 26 26 27 29 29 29 26 26 24 22 22 23 24 24 23 22 22 21 18 14 8 16 17 18 21 19 19 18 20 20
25 29 29 33 35 36 35 34 33 30 30 28 28 28 29 28 28 27 26 25 25 25 22 21 23 24 23 21 21 21 18 15 15 15 15 17 16 19 19 17 17 18 18
32 28 32 34 36 37 36 34 32 31 30 30 30 30 29 28 27 26 25 26 27 26 22 21 23 22 20 19 19 18 15 11 13 14 17 16 16 18 19 19 19 18 18
30 26 34 37 37 38 36 34 33 32 31 31 31 31 30 29 28 27 29 29 28 24 23 23 22 20 18 16 16 15 14 17 14 13 15 14 14 16 17 17 18 18 18
21 19 29 33 35 33 32 32 32 32 31 31 32 32 31 30 28 27 27 28 25 24 23 23 20 18 15 14 14 14 11 10 9 10 12 12 13 14 15 16 17 17 17
19 17 27 25 25 30 28 29 31 31 30 30 31 32 32 30 26 26 24 24 23 24 23 21 18 16 13 12 11 13 14 12 10 9 11 11 12 13 13 14 15 15 15
12 23 31 25 22 32 26 28 29 30 31 31 31 31 29 28 25 25 23 23 24 24 22 19 16 14 12 10 10 12 10 10 8 8 9 9 9 10 11 12 12 13 14
21 28 27 37 39 37 36 18 25 24 27 27 28 27 25 22 22 21 21 24 24 22 19 17 14 11 10 9 10 12 8 6 5 7 8 9 8 9 9 10 11 12 13
24 29 36 40 43 44 38 34 21 24 25 24 24 24 20 21 17 19 22 21 20 19 18 15 13 11 8 6 4 8 5 5 6 7 7 8 5 7 8 9 9 9 10
22 27 36 42 44 35 35 33 28 24 23 21 19 19 19 15 19 17 19 17 18 16 14 14 9 4 5 5 4 5 4 4 4 5 5 2 5 4 6 7 7 6 7
22 29 29 37 34 30 30 33 28 28 20 17 16 15 16 17 16 15 15 15 14 12 13 9 6 6 6 6 6 5 3 3 3 4 5 2 4 4 5 4 4 4 3
24 31 32 32 29 29 27 32 27 21 17 18 13 16 17 16 15 15 15 14 13 12 11 9 9 6 6 5 3 3 4 5 5 2 2 1 4 6 5 3 2 1 1
29 33 34 36 33 32 33 26 27 14 15 16 17 18 17 16 15 14 14 14 13 13 11 10 8 6 5 5 3 4 4 2 2 2 4 5 4 10 10 5 2 1 2
26 30 37 34 34 33 33 26 17 17 21 20 20 19 16 14 14 13 14 14 13 12 11 10 8 7 6 4 3 2 2 2 2 3 2 5 5 7 6 7 5 4 5
25 27 31 38 35 31 26 23 25 23 20 21 20 17 15 12 13 13 14 14 13 12 12 10 9 7 6 5 3 1 1 1 2 2 1 1 1 2 3 4 8 10 10
29 33 30 29 23 22 20 22 17 16 17 17 15 15 14 13 14 13 14 14 15 13 12 11 10 9 6 6 5 2 2 4 4 4 3 3 3 3 4 5 8 9 7
33 31 26 22 20 20 18 15 15 15 17 17 16 15 15 14 14 13 14 14 15 14 13 12 11 8 8 6 5 4 4 5 6 6 6 5 6 5 7 6 8 9 8
27 26 24 22 19 17 16 17 17 18 19 19 16 15 16 15 15 16 15 15 16 15 14 13 11 10 8 6 6 8 9 8 8 9 9 9 8 9 8 8 8 7 10
30 26 23 21 20 19 18 17 17 18 19 19 15 14 15 15 15 17 17 17 17 15 15 15 14 12 9 7 6 5 4 2 9 12 11 12 9 10 11 11 8 10 11
29 27 24 21 20 19 18 17 16 16 16 18 17 15 16 17 18 20 19 18 18 17 17 17 15 14 11 8 5 3 2 4 9 10 11 10 10 10 11 12 13 13 13
28 26 26 24 23 21 19 18 20 19 20 19 17 15 16 18 19 20 19 19 20 19 18 18 17 15 13 12 8 5 6 6 4 5 6 10 13 12 11 13 15 15 14
29 28 27 27 24 23 23 22 21 20 19 17 18 17 21 16 18 19 18 19 21 22 21 19 17 15 12 9 8 5 7 10 13 10 8 13 14 14 14 13 13 14 15
27 27 28 28 28 25 24 25 24 22 22 21 16 17 17 17 18 25 22 23 21 22 19 18 16 14 11 6 6 8 9 11 11 13 10 15 17 17 16 14 13 15 13

GFSSE_925_spd_072.txt.gz
Wind_Speed
32 29 29 32 38 37 36 35 33 32 29 27 27 26 25 24 25 27 27 28 26 26 24 24 26 26 27 29 29 29 29 28 29 28 29 27 25 25 24 25 24 25 24
13 28 29 31 36 36 37 35 34 32 30 29 27 25 24 24 25 27 30 27 27 26 24 25 25 25 27 28 27 26 24 25 29 29 26 26 25 23 24 25 24 23 23
57 21 27 30 35 36 37 36 35 32 30 29 27 25 24 25 28 30 29 28 28 26 25 25 25 27 27 26 25 22 19 15 15 18 26 26 24 23 22 22 24 23 23
19 23 26 29 34 34 35 35 32 31 29 29 27 25 26 28 30 31 29 28 27 26 25 24 24 27 25 24 22 18 15 14 19 21 28 22 21 21 21 22 20 22 20
21 22 25 29 32 33 34 35 32 30 30 28 27 27 29 29 29 30 29 28 26 26 24 24 25 25 24 23 19 16 13 15 19 15 20 21 21 22 22 22 21 21 20
26 26 30 31 34 36 35 33 31 32 30 28 29 30 30 29 29 28 29 29 26 26 24 25 24 22 21 20 14 13 15 14 27 26 21 20 22 20 21 21 21 20 19
25 21 30 31 34 37 37 34 31 32 30 30 31 31 31 29 28 28 29 28 25 25 25 24 22 19 19 17 14 13 17 21 21 21 19 20 20 19 20 20 20 20 20
17 10 17 26 30 32 38 34 34 32 31 31 31 31 31 31 31 31 31 28 25 25 25 23 20 18 17 15 14 13 16 18 21 21 18 19 18 18 18 18 19 19 19
20 22 13 6 14 39 38 33 32 32 32 32 31 31 31 31 32 32 31 27 26 26 23 21 18 16 15 14 16 16 15 14 16 22 21 16 15 15 15 16 17 18 18
12 18 16 16 22 33 34 31 30 31 31 32 32 31 30 31 30 28 27 26 26 25 22 19 16 15 12 12 13 10 10 14 17 13 13 14 12 13 13 14 15 17 16
24 26 30 22 29 34 29 26 24 26 27 26 28 29 28 28 27 24 25 25 26 23 20 18 14 11 10 13 13 11 12 11 15 12 13 11 10 10 11 12 13 15 14
22 28 28 33 36 37 37 29 23 22 24 25 27 25 23 25 20 24 24 23 22 21 18 16 13 10 8 8 9 9 9 11 7 8 10 11 9 9 9 10 11 12 12
21 27 34 36 34 40 38 34 28 28 20 26 24 20 21 22 21 24 22 21 21 19 17 16 10 6 4 6 4 8 5 5 8 8 8 8 10 8 8 8 8 9 9
25 26 27 36 31 33 41 36 30 28 26 26 19 22 16 19 17 20 18 19 18 14 16 11 8 7 5 5 5 7 4 6 6 5 6 6 8 8 7 6 5 5 5
24 27 30 28 25 31 32 35 32 28 26 19 18 18 13 17 15 17 16 16 15 14 13 10 8 6 6 6 6 4 3 5 6 2 4 4 7 9 6 5 4 2 2
31 27 28 30 21 32 33 28 28 28 22 21 19 14 16 15 14 18 18 16 15 14 12 12 9 8 7 4 5 4 4 5 5 5 4 4 4 10 12 8 5 4 2
27 29 28 33 28 32 35 33 31 27 22 26 17 19 16 13 17 16 17 16 15 13 14 11 10 9 7 6 6 6 2 6 5 5 1 1 3 7 9 9 9 8 7
28 31 29 27 33 34 30 35 34 24 27 29 21 16 15 17 17 15 18 14 15 14 14 12 13 10 9 10 8 4 4 4 4 3 3 2 4 8 9 8 5 7 9
29 30 30 33 35 35 33 31 27 25 23 20 21 23 21 19 19 18 20 20 19 14 15 14 13 12 12 12 9 8 5 5 5 6 6 6 6 3 1 6 5 7 8
35 29 32 34 33 33 33 29 26 25 25 24 25 25 25 22 20 20 16 17 19 15 16 17 14 14 12 11 9 10 7 8 9 9 10 9 8 11 8 8 4 11 8
31 32 34 29 34 31 28 26 23 22 24 21 20 19 22 22 22 22 17 18 21 18 18 17 14 13 11 8 6 8 14 16 13 12 10 12 10 10 9 12 10 7 5
33 33 34 33 28 27 26 25 25 25 27 26 26 25 22 22 20 20 19 21 20 19 19 20 17 14 13 12 6 4 1 7 14 15 15 15 15 14 12 11 12 11 11
35 34 32 35 33 31 30 28 24 24 23 25 24 24 23 21 21 21 21 19 20 22 23 20 21 18 18 13 11 3 0 3 3 10 23 19 15 12 12 13 13 13 12
37 35 35 31 33 32 30 26 27 21 19 21 23 23 22 23 22 21 22 23 22 24 19 26 24 23 19 16 13 10 4 0 1 3 2 12 17 17 18 18 17 16 14
34 35 30 26 26 28 29 22 27 22 23 23 24 25 23 22 23 22 23 24 24 24 24 24 24 24 19 12 15 11 6 6 10 10 4 10 14 12 18 20 18 15 13
36 33 33 31 27 27 33 30 22 27 23 22 23 22 24 26 27 23 21 27 28 24 24 21 22 22 19 15 14 13 10 5 6 8 3 6 8 15 17 16 13 14 16

GFSSE_925_spd_075.txt.gz
Wind_Speed
18 7 23 28 36 35 36 34 33 32 32 31 30 30 30 30 31 32 33 32 32 29 28 28 32 33 33 33 33 34 34 32 29 30 29 28 27 26 25 26 27 26 25
25 15 14 24 29 34 35 35 36 34 32 30 29 30 31 32 33 33 31 32 31 29 28 29 32 31 31 31 32 33 34 33 29 26 28 27 25 24 25 25 27 24 24
24 16 12 23 25 29 34 34 34 34 32 30 29 29 31 34 35 32 31 31 30 29 28 28 30 30 29 27 25 22 18 12 20 26 26 27 26 23 22 24 23 23 23
30 26 18 28 28 28 32 33 34 33 32 30 29 29 32 36 35 32 32 30 31 29 28 28 29 26 25 23 22 21 25 28 22 22 25 25 23 22 23 22 22 21 23
35 37 40 27 32 32 33 35 35 35 33 31 30 31 35 36 35 33 32 32 31 29 27 29 28 25 23 20 20 20 18 22 19 19 23 24 24 22 22 22 22 21 22
26 40 39 43 43 38 39 38 36 37 35 33 32 34 37 36 35 33 32 32 31 30 29 28 26 23 20 19 20 26 26 19 20 23 24 23 23 21 22 22 22 22 21
11 14 28 44 44 41 39 39 38 37 35 34 35 36 36 36 36 33 31 31 30 30 28 26 24 22 18 17 19 27 22 20 22 23 23 23 21 21 21 22 22 21 22
13 13 19 27 26 40 40 38 38 36 36 36 35 34 35 35 36 33 30 29 30 29 26 24 22 20 17 18 20 26 26 19 20 21 21 21 19 19 20 20 21 21 21
20 16 14 14 25 23 44 41 39 37 37 36 34 34 35 34 34 32 29 29 29 27 24 22 20 19 17 20 19 19 22 19 19 19 18 19 17 18 19 19 20 19 20
21 22 24 19 8 25 40 41 40 39 37 36 35 36 36 36 33 31 28 27 27 24 22 20 18 17 18 20 16 18 19 22 17 18 17 18 16 16 17 18 18 18 18
19 16 21 26 20 18 28 30 33 34 33 34 33 34 35 34 32 29 27 26 25 21 19 18 17 17 18 16 14 15 16 14 14 13 13 14 14 14 15 16 16 16 16
21 23 25 26 28 30 32 25 25 28 31 32 32 31 32 31 30 29 26 25 23 20 17 15 15 14 14 11 11 13 14 11 12 12 12 12 12 12 12 13 13 14 13
24 30 32 35 35 36 38 37 31 30 32 30 29 32 28 27 29 28 26 23 21 19 18 15 13 10 9 10 10 11 12 11 10 10 9 10 10 9 10 10 10 11 11
21 28 31 38 39 43 43 39 36 34 32 25 28 24 25 26 27 26 25 21 20 17 17 12 10 9 7 6 9 10 11 10 7 8 6 7 11 9 8 8 8 8 8
23 26 27 33 33 42 42 43 41 37 29 23 26 21 23 26 26 24 22 20 17 16 15 10 9 7 7 9 8 9 11 6 5 4 5 7 12 10 7 6 5 4 4
27 24 27 30 36 27 37 39 39 30 23 26 26 21 19 20 21 17 18 18 16 14 12 12 8 7 9 6 8 7 9 7 5 5 7 7 7 12 10 7 4 4 2
23 25 26 34 34 35 35 35 33 33 31 31 26 20 18 13 12 17 17 17 17 18 15 13 8 9 11 6 6 6 7 8 7 7 6 5 5 8 8 4 3 5 6
31 31 28 32 39 40 36 38 39 33 34 26 26 17 15 14 15 17 19 18 18 19 17 13 14 12 11 10 6 6 8 10 8 5 4 4 6 6 7 6 5 4 6
29 29 29 33 35 34 30 30 30 31 29 28 29 17 15 16 19 18 22 19 19 18 19 18 17 15 13 12 12 12 12 9 6 7 10 8 5 6 7 6 6 4 6
23 23 27 31 33 32 32 33 34 29 22 27 28 21 24 26 21 22 22 24 21 21 20 20 18 16 16 13 16 17 14 11 11 10 13 11 9 12 13 10 10 10 9
30 25 27 29 35 33 34 33 31 26 30 34 33 32 29 26 28 26 25 24 24 26 23 22 20 19 13 17 11 12 15 15 15 15 15 13 12 14 15 11 14 13 10
25 28 30 31 35 34 33 32 25 31 32 33 28 30 32 31 28 26 27 25 25 28 25 25 24 20 20 16 11 4 1 7 17 18 19 18 19 16 14 12 14 17 14
27 30 31 34 36 37 35 30 26 24 27 30 27 28 31 30 30 30 27 26 27 31 28 28 29 27 23 19 19 7 1 4 4 13 22 23 19 18 20 20 18 15 17
33 35 37 35 35 38 37 32 29 25 24 28 36 34 33 33 31 29 26 27 27 32 31 29 31 30 24 22 20 19 8 4 3 1 2 11 20 19 20 21 21 20 19
37 37 37 38 37 35 37 35 33 31 33 31 34 36 39 36 32 31 28 25 29 31 30 26 30 28 28 22 27 21 16 10 8 3 3 5 8 12 20 24 23 23 22
38 37 35 36 36 39 41 42 37 37 36 33 31 37 39 36 36 34 30 29 30 29 30 30 31 34 30 27 24 20 14 7 8 7 3 9 7 11 13 12 8 12 22

GFSSE_925_spd_078.txt.gz
Wind_Speed
22 28 24 23 26 30 30 32 29 32 32 35 38 39 40 40 39 38 36 35 32 31 30 31 33 34 33 32 33 31 30 31 30 28 27 26 25 24 24 26 28 26 24
25 30 30 29 15 24 28 33 31 32 33 34 35 37 36 37 37 36 36 36 34 31 29 31 30 31 31 30 34 29 26 27 26 28 26 24 24 23 25 27 25 25 23
22 26 35 28 14 17 24 29 34 34 34 34 35 37 38 39 39 36 37 35 35 31 29 30 29 28 27 25 20 14 19 24 24 26 29 27 24 22 23 23 23 24 24
17 17 29 34 22 16 24 30 34 35 35 35 36 40 41 41 39 37 38 36 35 32 29 28 26 27 26 23 20 24 23 22 24 25 26 26 24 22 22 22 23 23 24
25 15 32 38 38 35 30 33 34 34 34 35 39 43 42 41 38 38 39 38 35 31 27 26 27 26 23 19 23 24 22 24 24 25 26 26 26 22 21 21 22 21 20
19 23 32 39 47 46 43 37 35 36 36 39 43 41 41 39 38 40 39 38 35 31 28 28 26 25 25 23 26 23 24 25 25 25 26 26 25 21 22 21 21 20 20
12 32 26 36 35 36 37 40 39 38 37 40 44 43 40 39 38 39 39 36 34 32 29 26 24 24 26 23 26 23 22 23 25 24 25 25 22 20 21 20 20 21 20
16 25 17 19 16 40 50 45 41 39 39 43 42 42 41 39 37 38 38 35 33 30 27 24 21 23 28 25 22 21 21 22 23 23 23 23 20 20 20 20 20 21 21
14 26 37 19 8 5 54 49 45 40 41 45 44 42 41 39 37 37 36 34 32 29 26 23 20 22 23 24 19 18 19 19 21 21 20 22 19 18 19 19 19 20 20
18 21 27 17 16 24 40 48 44 43 40 42 42 41 39 38 37 36 35 33 30 27 25 23 20 21 19 21 21 21 19 17 18 18 18 20 17 17 17 18 18 18 19
19 15 21 24 18 8 46 38 33 34 40 40 40 40 37 37 35 34 33 31 29 27 24 22 20 18 18 20 20 19 16 16 16 16 17 18 16 16 16 16 17 17 17
16 18 20 23 24 32 26 30 24 30 35 38 39 40 38 36 34 33 32 29 27 25 22 22 21 16 14 14 15 15 14 15 14 14 15 16 15 14 14 15 15 14 13
18 24 24 32 35 40 41 43 23 26 31 35 36 37 36 35 34 34 32 28 27 23 21 19 16 13 14 12 11 13 13 14 14 12 12 13 14 13 13 12 12 12 11
18 26 31 34 39 42 40 43 41 32 30 33 34 34 34 33 34 34 32 29 26 22 20 17 14 14 11 11 9 12 11 11 10 10 10 12 13 12 11 10 10 9 8
18 23 32 34 34 39 42 45 41 38 35 31 30 32 32 33 33 32 30 28 25 22 18 15 13 12 11 12 12 10 9 9 9 7 7 8 11 11 9 9 7 6 5
19 23 28 34 39 39 39 39 39 37 35 35 31 30 32 32 32 31 27 26 24 21 16 15 12 10 10 9 10 9 8 8 6 6 7 8 11 12 10 9 7 6 4
17 23 24 30 35 38 41 41 41 33 38 34 31 26 28 27 27 26 25 23 21 20 16 14 10 11 12 9 9 9 8 6 6 8 7 9 13 15 13 8 5 3 2
20 23 23 23 28 34 36 34 35 33 40 33 30 25 23 21 24 22 23 20 19 18 17 15 13 14 13 11 10 12 10 7 7 9 11 11 12 13 13 9 6 4 4
21 21 25 27 27 31 30 30 30 32 35 33 29 25 20 23 23 20 18 17 19 19 20 19 17 16 16 16 12 11 12 12 11 11 13 12 11 10 12 10 8 8 6
19 22 24 27 30 34 32 31 30 32 33 30 28 26 21 17 19 17 17 19 21 25 23 22 19 17 17 17 15 15 15 16 16 16 16 13 12 11 12 12 11 11 9
20 23 25 28 34 36 33 33 32 31 31 32 32 26 18 19 18 18 19 24 24 26 24 23 22 20 19 19 17 15 16 17 19 19 18 20 18 15 15 15 16 14 13
20 24 27 29 32 33 35 33 29 32 30 26 29 34 25 19 20 24 25 25 27 25 25 26 24 23 21 21 12 6 1 11 21 22 20 21 20 19 19 19 20 17 17
20 24 30 30 32 32 32 31 30 33 31 31 33 34 31 26 29 29 30 29 28 28 29 29 27 27 26 22 24 9 2 5 4 14 23 21 21 22 20 21 21 19 19
25 27 27 29 32 35 34 29 28 27 26 29 31 36 38 36 37 36 33 31 31 31 31 31 29 29 27 25 20 19 8 4 3 1 7 11 17 25 23 22 23 21 21
31 33 33 33 32 34 37 33 33 29 29 30 33 36 36 35 36 38 37 34 32 33 32 34 33 32 32 29 32 19 16 9 3 4 1 3 6 10 15 18 23 22 20
30 33 35 34 36 37 37 38 35 34 32 31 35 37 39 39 40 40 36 34 35 32 34 33 33 32 36 35 29 28 15 4 3 3 3 5 6 15 16 13 12 13 15

GFSSE_925_spd_081.txt.gz
Wind_Speed
11 15 18 19 22 28 25 37 44 43 42 39 40 39 40 38 38 37 36 34 35 35 33 32 33 31 31 28 27 26 28 29 28 25 25 24 24 23 25 24 25 24 25
12 21 22 21 25 28 29 29 38 40 42 39 38 39 39 38 39 38 37 37 36 33 32 31 31 32 31 28 27 26 26 28 27 25 25 24 24 24 25 24 25 24 24
23 24 25 26 29 31 33 31 29 37 42 44 38 38 38 37 38 38 40 39 37 34 32 31 29 26 25 21 24 25 25 26 26 25 27 26 24 23 24 25 26 26 25
24 28 25 27 30 31 33 33 29 34 37 39 40 39 39 39 40 41 41 38 38 36 32 30 27 23 19 21 24 23 24 24 25 27 29 27 25 22 23 23 24 24 25
21 21 27 31 35 38 34 27 32 34 37 38 39 37 37 39 40 41 40 38 36 33 30 28 26 24 24 26 24 25 25 26 27 28 29 27 25 22 22 23 22 21 22
25 17 30 32 32 33 36 34 28 31 38 38 38 36 36 38 40 42 40 36 34 32 29 26 24 25 28 26 25 26 26 27 26 28 29 27 26 23 22 22 23 21 22
29 22 20 32 25 24 37 41 45 39 38 40 39 35 37 39 41 41 38 36 35 32 30 28 25 27 30 28 26 25 26 26 26 28 28 27 25 23 22 22 23 21 22
15 16 20 27 30 30 37 38 38 42 42 43 39 37 37 40 42 41 39 36 35 34 32 29 27 29 29 27 25 25 23 24 25 27 26 26 23 22 22 22 22 22 22
19 18 18 14 11 26 29 31 37 36 45 45 42 37 37 40 41 41 39 35 34 32 31 29 28 27 26 25 23 21 22 22 23 23 24 25 22 22 21 21 22 21 22
18 24 9 10 16 16 18 30 40 40 41 49 42 40 39 40 41 39 38 34 32 30 30 28 27 27 26 22 21 21 20 20 21 21 23 23 21 21 20 20 21 20 20
20 20 18 19 20 26 35 47 32 46 38 46 43 40 40 39 39 38 36 34 30 29 30 28 25 26 25 24 22 19 18 18 19 20 21 21 20 20 19 19 19 19 18
13 21 24 20 16 1 20 46 50 39 40 38 43 40 37 37 39 37 35 32 29 27 27 25 22 23 23 23 21 17 16 16 17 18 20 20 19 18 18 17 16 16 16
17 24 25 23 21 17 29 46 42 38 35 33 40 38 37 37 37 37 35 32 30 27 27 23 20 20 18 19 19 16 16 15 15 17 17 19 18 17 16 16 15 14 13
17 24 25 27 29 30 36 41 43 31 39 39 39 38 37 36 36 37 35 31 30 27 25 20 18 17 16 15 16 15 14 14 15 15 15 16 16 15 14 13 12 12 11
20 22 26 28 31 37 40 44 42 34 34 37 37 37 37 36 36 35 33 30 28 26 23 20 18 15 13 14 13 13 14 13 13 13 15 13 14 14 13 11 10 9 8
19 25 28 30 32 39 34 38 38 38 37 36 35 38 36 35 35 34 32 29 27 25 20 18 15 14 14 13 13 12 12 13 12 13 13 14 12 13 13 11 9 7 6
16 22 29 30 31 30 32 35 33 35 36 37 36 34 35 37 35 33 30 28 25 22 20 17 14 14 14 13 11 10 11 11 11 12 11 12 14 12 13 12 10 8 5
16 17 20 28 30 32 29 31 29 37 37 37 41 36 34 33 33 31 28 27 24 22 19 17 16 16 14 12 12 11 11 10 9 9 9 10 12 16 15 12 7 5 3
14 20 18 20 27 30 28 27 30 34 36 32 30 30 31 30 29 28 28 24 23 22 19 19 17 15 16 14 13 13 13 13 10 9 10 11 12 14 16 14 9 7 5
15 19 19 21 26 25 28 24 26 32 32 31 29 30 30 27 27 23 20 23 23 20 20 20 17 17 16 15 14 14 15 14 13 13 12 13 13 15 15 15 12 10 7
16 19 22 23 26 25 29 24 27 33 30 28 28 27 26 25 21 18 22 23 22 20 22 21 20 20 18 17 15 13 15 18 18 17 16 17 18 18 17 16 14 14 12
16 20 21 24 29 34 35 24 21 26 32 28 25 23 20 17 15 23 23 24 21 21 23 24 25 24 20 19 10 3 1 8 22 23 23 22 23 21 21 18 17 17 16
18 22 22 23 29 30 30 23 25 24 26 26 24 24 20 20 25 23 22 22 22 22 26 27 29 28 24 23 24 9 1 4 0 11 26 25 24 24 23 23 22 20 21
22 23 27 27 29 28 32 30 32 29 26 27 30 30 25 23 24 21 23 25 26 28 27 30 31 32 28 25 22 21 9 2 3 1 3 13 20 20 22 22 22 24 25
21 22 29 30 31 32 35 35 34 29 28 26 29 32 35 32 30 27 28 29 31 30 31 33 34 34 31 28 26 15 16 8 6 3 1 2 4 5 9 14 17 19 20
23 24 26 29 32 35 37 37 37 34 31 30 31 34 37 35 35 35 34 35 37 35 37 37 36 34 35 33 31 29 22 10 9 5 3 7 7 12 15 15 19 11 11

GFSSE_925_spd_084.txt.gz
Wind_Speed
10 18 22 25 28 28 26 37 43 44 43 42 44 38 38 36 34 33 34 34 34 33 31 29 29 28 28 27 28 28 30 28 27 26 25 25 25 24 24 26 26 24 25
17 20 24 24 28 32 32 39 42 43 42 42 42 39 35 35 34 34 34 35 35 34 32 30 29 28 27 27 28 28 30 31 29 28 27 26 26 24 25 27 25 24 24
17 25 28 27 27 32 33 36 41 42 45 44 44 40 34 34 34 34 35 36 36 34 32 32 29 29 27 26 26 25 26 27 30 29 29 29 26 26 28 28 26 26 25
18 24 29 33 31 31 38 38 40 43 43 45 44 39 35 33 34 34 34 35 35 33 29 29 25 23 25 26 26 25 25 26 29 30 31 27 26 24 24 25 26 24 24
21 26 24 28 34 36 38 37 39 38 41 41 42 39 35 34 34 33 35 35 35 33 28 25 23 25 25 25 26 26 27 28 29 29 30 29 27 24 24 24 23 23 23
19 19 25 29 31 34 39 41 42 41 41 40 38 37 38 36 33 32 35 35 33 30 28 26 27 28 26 26 27 28 29 29 30 31 30 28 27 24 24 24 25 24 24
21 14 12 26 31 33 36 38 43 43 41 43 40 39 39 38 33 33 35 34 32 30 28 28 30 29 27 26 28 28 28 28 30 31 29 28 26 25 25 25 25 25 24
20 17 18 17 29 30 32 39 41 43 42 42 45 43 43 38 35 33 35 34 32 29 27 29 31 29 28 28 27 27 27 28 29 30 28 27 25 25 25 25 26 25 25
16 14 13 15 24 19 23 29 37 44 45 40 43 47 44 41 35 33 34 34 31 29 28 30 32 30 28 27 26 25 25 25 27 28 28 26 24 24 24 24 25 24 24
15 17 14 13 16 18 26 24 31 35 41 42 44 46 46 43 37 35 34 32 30 30 30 32 33 29 26 25 24 23 22 23 25 27 27 25 23 23 23 23 24 23 23
17 22 13 17 16 19 24 27 27 31 34 39 41 46 46 42 37 36 36 33 31 30 30 31 31 28 26 24 21 19 20 22 23 25 25 22 21 21 21 21 22 21 21
17 20 15 16 14 17 21 32 40 38 36 36 37 42 47 41 38 36 35 34 31 29 29 29 29 29 28 23 20 20 19 19 20 22 23 21 19 19 20 19 19 19 18
14 19 18 17 13 6 16 33 32 45 43 36 35 40 45 41 38 34 34 35 32 28 29 29 27 26 24 21 20 18 17 17 18 20 20 19 17 17 17 17 16 16 16
16 17 21 16 13 9 14 45 40 45 41 36 36 41 44 43 37 35 34 33 32 27 27 24 25 23 21 19 18 17 16 15 16 17 18 17 16 16 15 15 15 14 13
12 17 20 20 17 21 27 33 44 40 39 35 37 41 42 41 39 35 33 32 31 27 26 25 23 21 20 19 16 15 14 14 14 15 16 15 15 14 14 13 12 12 11
10 16 19 21 19 27 33 35 40 41 39 37 39 39 40 41 38 35 32 30 28 25 24 24 22 19 18 17 17 13 12 12 13 15 15 15 13 14 13 12 11 9 8
10 15 19 22 24 26 32 40 41 37 38 31 31 35 36 37 37 34 31 29 26 23 22 21 20 18 17 15 14 12 11 12 12 14 15 15 14 13 12 11 10 8 8
11 10 20 22 25 25 21 26 28 31 38 37 36 34 37 37 35 33 31 26 24 22 21 20 19 17 15 13 12 12 12 11 10 13 13 15 16 15 14 12 11 9 8
10 12 18 24 24 27 25 27 27 23 29 36 36 35 30 33 33 33 30 26 24 21 19 17 17 15 16 14 12 11 12 12 11 14 13 14 15 15 15 14 11 9 7
11 14 16 22 28 28 23 24 27 21 25 29 29 29 32 26 29 30 28 27 25 21 19 17 15 15 15 14 12 11 12 13 14 15 14 14 14 15 16 17 14 12 11
13 16 18 21 25 31 27 26 28 24 26 33 32 32 31 34 34 31 27 25 23 21 20 19 17 17 16 16 12 10 13 16 18 19 18 17 17 17 17 17 17 16 14
15 16 18 23 27 27 28 29 22 26 27 30 30 30 30 31 30 28 26 26 23 21 21 22 21 20 17 18 9 4 1 8 21 23 23 21 21 20 22 21 20 19 18
17 17 18 21 28 26 31 25 15 22 25 24 25 30 26 27 27 26 25 23 20 22 24 24 25 25 20 20 20 7 2 5 2 10 26 27 24 24 24 24 23 23 23
14 19 19 20 25 29 35 30 23 24 22 22 31 33 28 25 25 24 24 19 17 24 26 26 27 28 27 23 22 21 14 5 3 2 6 16 26 25 27 25 23 22 23
20 22 24 22 24 27 35 30 29 22 26 30 29 28 29 26 24 22 19 18 25 27 28 29 29 31 33 30 26 14 24 12 9 3 2 3 6 16 26 25 22 20 18
18 20 24 27 28 29 34 35 34 33 29 30 30 30 30 29 29 26 25 29 29 28 30 31 32 35 35 34 34 31 24 11 12 8 2 5 9 11 15 13 14 14 14

GFSSE_925_spd_090.txt.gz
Wind_Speed
9 11 20 19 15 26 32 35 36 37 39 38 37 36 36 35 36 30 30 28 29 26 25 24 25 24 21 21 23 22 21 22 24 23 23 24 25 25 26 26 26 26 28
4 12 21 20 20 23 32 35 37 38 40 40 39 36 37 35 37 32 31 31 30 27 24 23 23 23 23 22 24 23 23 24 23 25 24 22 22 23 24 25 24 24 25
5 11 15 19 20 22 27 35 40 42 43 43 41 39 37 33 35 38 33 32 29 27 25 24 23 24 24 25 26 26 26 27 25 25 22 20 20 22 23 23 23 23 23
5 10 17 21 23 25 26 34 40 42 44 43 43 40 38 36 36 38 37 33 30 27 26 25 24 23 24 26 28 27 27 30 27 24 20 21 21 23 22 22 22 23 23
6 9 15 22 26 29 29 37 37 40 41 41 41 41 40 39 39 38 37 34 31 29 26 25 24 23 24 27 26 25 29 24 22 20 19 19 19 20 21 21 21 22 22
8 11 17 24 27 29 30 37 39 40 42 42 41 41 41 38 38 39 36 36 34 30 26 24 24 23 24 24 26 28 27 24 19 19 20 19 18 19 19 20 22 22 21
11 11 18 23 20 16 18 30 42 41 42 44 42 41 40 40 39 39 37 37 34 30 26 25 24 24 25 26 27 27 26 20 19 20 19 20 20 20 20 21 21 21 21
9 10 14 16 19 34 36 43 41 44 44 45 44 42 41 40 40 39 38 35 32 29 28 26 25 25 25 25 26 26 24 20 18 19 20 19 21 21 21 20 21 21 20
5 8 9 8 17 26 31 35 47 45 47 46 45 42 41 40 42 40 38 37 32 30 29 27 26 25 26 26 27 26 24 19 17 18 19 19 20 20 21 20 20 21 21
1 2 6 9 19 22 23 26 25 41 45 47 45 44 42 41 41 40 39 35 33 32 30 29 27 25 25 26 26 25 25 20 17 17 17 20 20 20 20 19 19 19 20
4 4 4 6 16 21 20 19 19 28 38 43 44 43 43 36 38 36 30 35 35 34 30 29 27 27 25 24 23 23 17 17 16 15 17 22 20 19 19 19 19 18 18
1 7 7 5 9 16 19 18 23 14 32 37 37 40 36 37 35 29 31 33 35 33 30 28 27 27 22 19 20 13 12 15 14 14 17 20 18 18 18 17 17 17 17
1 5 9 8 7 13 13 16 20 24 26 34 37 37 34 33 31 31 30 29 31 31 26 25 25 19 17 17 16 11 16 14 14 15 18 19 18 17 16 16 15 14 14
5 6 9 11 9 11 17 20 26 27 34 34 34 34 38 31 32 33 31 28 30 28 26 23 21 15 16 16 14 14 13 13 13 15 17 18 18 17 17 16 15 14 13
6 5 10 12 14 13 15 18 26 25 29 47 44 36 31 30 31 32 30 28 29 27 26 23 18 16 15 16 14 14 13 12 13 14 15 19 17 16 15 14 14 13 12
3 4 11 13 14 13 15 19 26 29 27 46 46 41 33 28 30 29 29 27 26 26 23 21 19 18 15 15 14 13 12 11 12 13 13 17 18 16 15 13 13 12 11
3 5 10 13 13 11 10 19 24 36 37 42 41 42 34 30 28 28 27 24 24 23 21 20 18 16 16 14 13 13 12 12 12 12 13 13 15 17 16 15 14 13 12
3 8 11 11 10 8 4 11 29 33 44 40 43 38 36 33 26 25 26 24 23 22 20 19 18 16 15 14 13 11 10 11 12 13 12 12 13 13 16 17 16 14 13
6 11 11 14 9 9 7 21 32 38 36 41 40 38 38 38 32 29 25 26 28 23 17 18 17 15 13 13 12 11 11 12 13 12 13 13 13 13 13 17 18 16 16
8 11 14 14 16 15 17 28 31 32 31 33 37 35 38 35 34 32 25 27 26 23 14 15 15 13 11 10 10 10 10 11 11 12 14 15 15 15 14 13 16 17 20
10 11 13 14 15 21 21 23 25 26 29 28 33 30 35 38 36 29 24 23 21 18 16 13 12 13 9 9 8 7 9 12 13 14 14 15 16 17 16 16 16 15 17
10 12 12 14 17 17 22 22 18 26 27 26 27 29 24 32 28 27 22 22 18 20 17 16 14 12 11 14 10 9 5 11 17 19 18 19 19 19 19 19 19 19 19
14 13 13 15 17 18 19 26 24 19 22 22 28 27 26 31 24 23 25 23 22 19 18 19 17 16 14 13 16 10 4 6 4 13 19 20 20 21 21 21 23 27 27
16 15 16 16 18 19 26 25 27 25 26 25 34 29 29 24 25 23 23 22 22 24 20 21 20 19 16 15 13 19 17 12 5 5 11 16 20 23 26 28 26 24 26
18 18 17 17 18 20 23 24 28 21 22 22 26 29 30 29 26 24 20 22 20 20 19 20 19 19 18 18 17 15 17 20 19 15 12 11 13 17 23 25 26 26 26
18 19 19 19 19 21 26 25 29 27 20 22 23 30 29 33 32 32 23 19 19 18 21 22 19 18 20 20 21 23 21 18 17 18 13 20 19 17 19 24 22 23 26

GFSSE_925_spd_093.txt.gz
Wind_Speed
7 5 7 14 15 19 23 25 27 28 30 32 32 32 30 30 30 30 29 25 27 25 23 23 21 21 21 22 22 22 26 26 28 28 28 26 25 25 25 27 27 27 29
5 2 8 17 14 20 23 25 25 27 31 34 34 34 31 30 31 31 30 28 29 27 24 23 22 21 21 22 22 23 24 24 24 26 26 25 24 25 26 27 26 26 26
3 2 7 16 18 18 25 23 24 23 27 29 33 34 32 30 29 29 34 33 29 27 24 22 22 21 21 22 22 23 23 22 24 23 22 19 19 22 23 21 22 22 23
2 2 9 15 18 17 21 28 26 24 31 31 34 34 33 32 32 32 33 35 30 29 24 23 23 22 23 24 24 25 28 26 24 19 17 19 18 20 22 22 22 23 23
3 3 6 14 20 19 24 28 25 30 33 34 34 34 34 33 34 34 34 33 31 30 25 23 22 22 24 25 25 28 28 28 28 20 18 20 18 19 20 21 23 23 22
6 6 9 12 16 22 27 25 29 35 33 38 37 36 35 36 34 35 33 31 34 32 28 23 22 23 25 26 26 28 25 18 11 17 16 17 17 19 21 22 23 22 23
6 7 9 16 21 24 26 17 18 32 39 42 40 38 37 37 38 34 32 32 32 31 28 24 22 24 24 24 29 26 20 17 17 18 18 17 16 18 19 20 22 22 22
5 7 10 13 20 24 28 19 37 44 40 39 43 41 41 39 38 35 33 33 32 31 29 26 24 23 24 26 26 22 17 18 17 17 18 18 20 19 19 20 21 21 21
4 5 10 9 10 16 25 26 22 23 25 28 44 44 43 40 37 35 33 33 30 30 28 27 26 26 26 26 25 22 20 16 16 18 18 18 20 20 19 19 19 20 20
3 4 8 8 7 12 19 21 21 30 47 48 43 45 44 42 39 38 34 32 29 29 29 28 27 25 26 26 24 21 19 15 17 17 17 19 20 20 19 19 19 19 19
1 4 5 7 9 11 13 16 24 27 39 44 46 48 44 37 37 36 30 31 30 30 31 29 27 25 24 26 25 23 14 13 15 16 16 21 19 19 19 19 18 17 17
4 5 5 4 6 9 13 11 14 23 28 32 44 48 39 37 34 30 31 30 31 30 30 28 26 25 20 19 19 13 5 11 14 15 18 21 19 18 18 17 17 17 17
1 5 7 6 4 5 9 10 12 14 24 42 43 44 35 36 34 32 33 30 27 28 24 25 26 19 17 17 13 8 12 10 14 15 19 20 18 17 17 17 16 15 15
5 6 8 6 7 7 7 8 13 16 20 33 42 38 39 31 30 29 30 29 27 24 25 24 20 17 15 15 9 11 11 11 14 14 18 19 17 16 15 15 14 13 13
6 6 5 6 7 6 7 11 14 20 23 25 31 32 35 31 27 29 30 29 28 25 24 23 19 17 15 14 12 12 10 9 13 14 16 18 17 16 14 13 13 12 11
4 5 5 6 7 10 8 8 13 19 32 33 27 29 29 29 28 26 28 29 28 26 24 22 19 18 15 14 13 12 10 12 11 13 14 16 16 15 14 13 12 12 11
3 4 6 7 9 9 8 11 12 16 24 34 39 37 31 28 29 21 26 27 27 26 23 20 19 17 15 14 13 12 11 11 11 11 13 12 15 16 15 15 14 13 12
4 5 6 7 10 8 9 10 14 18 26 33 43 43 35 35 27 27 23 23 24 25 23 20 19 17 15 14 15 13 12 11 11 10 11 12 13 13 17 17 17 16 14
4 8 7 8 6 3 5 15 17 24 29 34 43 41 38 35 27 22 24 22 22 23 20 19 17 17 16 15 14 12 11 10 11 11 12 13 14 14 15 18 19 19 18
7 8 9 7 6 7 12 18 17 25 22 41 41 41 39 32 29 23 21 21 23 21 20 17 17 14 14 13 12 11 10 10 11 13 14 15 15 16 16 17 20 19 21
9 10 11 10 9 15 15 21 21 22 32 35 37 40 38 32 29 23 23 23 22 22 24 19 16 14 10 10 9 7 9 11 13 13 15 16 17 18 18 17 18 19 22
12 12 12 12 13 10 12 15 22 29 27 31 33 32 30 30 30 28 27 23 20 21 19 18 17 14 10 14 11 12 6 10 16 19 18 19 19 18 20 21 21 20 18
15 16 13 13 14 13 13 18 27 27 28 29 29 29 29 27 26 25 22 20 19 20 19 20 19 16 14 16 14 8 3 5 6 18 21 20 19 20 20 21 24 24 24
17 16 16 14 15 16 18 19 25 29 29 28 32 33 31 31 28 25 20 22 23 20 20 20 15 20 17 13 10 14 14 11 3 2 10 18 21 22 23 25 24 26 26
18 18 19 18 16 17 19 20 23 24 22 21 25 28 27 28 32 28 27 22 23 19 18 16 20 19 16 14 16 13 11 14 16 12 9 15 17 20 22 25 25 24 26
20 18 19 21 21 20 20 21 23 26 25 23 22 23 24 23 30 33 29 23 19 19 16 20 19 18 17 18 18 16 16 13 13 15 9 16 16 20 21 23 26 27 26

GFSSE_925_spd_096.txt.gz
Wind_Speed
11 10 8 12 14 15 15 15 17 19 18 22 20 20 22 23 23 24 24 24 26 26 24 24 21 20 21 22 25 26 29 31 31 32 30 27 27 27 27 30 30 31 31
8 7 6 10 15 16 17 17 17 18 19 19 21 21 23 26 25 24 24 27 28 26 25 26 23 23 22 24 26 26 28 29 31 31 31 27 27 27 28 28 29 29 29
7 2 5 8 15 19 19 20 20 19 20 22 23 23 25 27 28 26 26 27 31 27 25 25 23 23 22 23 25 25 25 22 24 26 24 25 25 24 23 23 24 24 25
5 3 6 8 15 17 20 22 22 22 24 27 26 25 26 27 27 27 28 29 28 28 24 24 23 23 23 23 24 25 29 26 21 22 24 20 19 21 21 20 20 23 22
2 2 7 6 11 18 20 23 25 22 25 28 29 28 27 28 28 29 29 28 28 28 25 24 23 25 24 22 28 32 30 27 21 23 21 19 18 18 20 21 20 22 23
1 2 7 8 11 15 20 24 25 22 27 29 34 31 29 30 31 31 29 28 26 28 26 26 23 26 25 27 29 28 28 26 21 20 18 19 20 21 22 23 22 24 24
1 1 4 7 13 16 17 21 23 20 22 22 22 32 32 32 33 33 29 28 26 28 27 25 27 27 27 29 25 23 18 15 21 23 22 19 18 19 20 21 22 22 22
1 3 5 7 11 18 20 25 25 23 23 18 19 29 38 36 37 36 31 29 26 28 29 26 29 28 28 28 23 16 13 14 25 22 20 20 19 19 20 21 22 23 22
1 2 6 7 7 13 20 27 29 23 27 22 37 36 38 39 40 37 34 32 29 27 26 29 29 27 29 26 21 19 14 18 25 23 20 21 19 19 20 21 21 21 21
2 2 4 5 7 10 17 27 25 19 20 30 27 36 39 39 41 37 35 31 28 26 27 28 28 28 29 25 21 17 16 24 20 22 21 21 20 18 19 20 21 21 21
4 7 5 5 7 11 12 19 21 16 22 21 28 47 41 42 40 38 35 30 28 28 28 28 29 28 28 25 21 20 15 18 24 22 19 19 19 19 18 18 19 19 19
9 9 6 7 8 10 10 13 13 13 25 21 29 38 42 39 39 36 32 32 30 28 28 28 28 29 28 26 21 13 13 21 20 17 22 19 18 18 17 17 17 17 17
12 10 8 6 6 10 11 13 11 8 22 23 30 38 40 36 39 37 35 32 30 29 29 28 30 27 30 24 17 7 13 20 20 19 21 18 18 17 17 16 17 16 16
11 12 10 9 8 5 7 12 13 8 17 11 26 17 43 36 36 38 36 35 32 28 30 33 27 23 23 19 9 17 15 22 20 17 21 18 17 16 15 15 15 14 14
4 9 9 9 7 6 7 7 12 13 13 17 29 35 38 36 35 36 31 32 33 28 30 28 20 23 23 16 14 17 8 23 18 15 21 18 17 16 15 13 13 12 12
3 4 7 7 6 6 7 11 10 12 6 8 35 43 38 36 36 33 33 29 28 30 27 22 24 23 21 16 18 13 10 18 18 15 20 20 18 17 15 14 13 13 13
7 6 6 7 8 9 8 8 13 14 19 30 34 35 35 34 34 34 32 31 27 28 26 21 24 21 20 18 17 15 13 14 18 21 15 20 18 17 16 16 15 14 13
9 9 9 8 10 9 7 9 13 14 20 25 28 29 31 34 33 32 33 32 29 29 27 23 24 22 21 21 19 16 15 13 16 19 14 16 19 20 19 17 17 17 16
10 9 10 9 10 9 10 11 14 18 24 32 37 36 30 33 28 31 31 31 34 29 25 27 22 22 22 20 18 16 16 15 16 13 18 19 18 19 19 21 20 20 18
11 11 11 11 10 9 9 12 17 23 28 32 37 40 38 33 27 23 25 27 30 31 25 26 23 20 21 18 17 16 12 12 15 16 16 16 19 18 21 17 20 22 21
13 14 13 13 12 12 13 12 17 19 30 30 38 45 41 32 27 24 25 27 24 25 25 23 22 19 14 11 14 12 9 9 12 15 19 19 19 19 21 21 25 25 24
15 16 15 14 14 14 12 13 15 22 25 34 34 40 42 34 24 24 24 20 20 22 23 21 21 18 14 17 10 8 3 7 15 20 19 21 21 22 25 23 22 24 23
16 18 17 18 19 16 18 23 26 29 28 33 35 34 33 32 24 24 24 26 21 25 26 23 23 22 18 20 18 8 3 4 7 16 25 22 23 25 25 25 28 29 26
17 18 17 17 20 21 21 22 25 25 23 26 33 36 36 34 25 21 23 26 26 24 23 22 23 22 18 15 19 25 17 5 2 1 14 26 26 25 28 30 27 29 32
21 21 19 19 18 21 22 21 20 21 23 28 26 29 30 27 27 28 31 29 24 23 21 22 21 20 20 16 17 13 17 16 13 7 3 10 26 29 29 30 32 35 31
22 22 21 20 19 23 23 26 22 23 27 26 28 31 29 28 30 31 28 26 22 22 24 18 24 23 26 17 22 20 13 8 11 9 5 10 12 19 27 31 34 34 38

GFSSE_925_spd_099.txt.gz
Wind_Speed
9 10 7 9 15 17 19 20 18 18 19 18 17 17 19 21 24 26 27 27 27 27 26 23 25 26 26 27 28 30 32 32 32 32 30 29 28 28 28 31 31 31 29
12 11 10 10 14 15 19 21 19 17 18 20 19 18 19 21 23 24 23 22 24 27 25 22 23 25 26 28 28 31 32 33 33 32 31 29 29 29 29 29 29 29 28
11 11 11 11 14 16 18 20 22 21 19 21 20 21 22 23 24 24 24 24 27 27 26 24 23 25 27 29 30 30 30 29 30 31 31 28 28 27 27 26 24 26 25
11 7 12 10 13 16 19 20 20 21 21 23 22 24 26 26 25 25 26 28 27 26 26 26 25 26 28 29 28 29 29 25 26 27 27 25 25 23 23 23 22 21 22
11 8 9 10 9 16 20 21 22 22 23 26 25 25 27 27 27 27 29 28 26 26 25 25 25 29 29 26 31 31 24 27 25 24 23 23 23 19 21 20 21 22 22
10 8 9 9 10 16 21 23 24 25 24 26 29 28 28 26 25 29 30 28 27 25 24 25 27 28 28 36 35 30 27 24 24 24 22 20 20 21 22 21 24 23 23
8 7 10 10 13 18 21 23 23 22 22 22 21 20 25 25 26 31 30 27 27 25 25 26 30 29 35 34 33 29 25 23 20 22 23 20 19 20 21 21 22 22 22
9 5 7 11 13 19 22 25 26 28 24 25 16 16 19 21 28 31 30 27 27 26 25 30 31 35 34 31 30 21 19 22 26 24 24 20 20 20 21 21 22 22 21
7 9 7 9 11 16 21 22 27 31 29 29 36 29 21 19 20 31 29 30 28 26 25 31 33 36 33 28 22 17 24 31 26 26 25 21 20 20 20 21 22 21 21
9 8 11 11 9 11 20 23 29 29 27 31 29 23 30 27 23 27 32 31 28 26 28 31 33 35 30 24 19 19 31 28 25 24 25 22 21 20 19 20 19 19 20
12 9 9 9 9 11 12 20 25 28 28 26 30 30 26 42 37 34 34 33 29 26 29 32 32 33 29 23 25 29 29 26 21 23 24 22 20 20 19 19 19 19 19
16 14 9 9 11 12 12 15 21 19 21 22 28 24 29 27 39 38 34 32 30 29 29 29 32 32 27 25 24 17 30 26 23 23 25 22 21 20 19 18 18 17 16
22 16 11 10 10 14 12 13 16 18 21 24 29 26 28 27 39 38 35 33 33 30 29 30 32 32 28 25 21 19 28 24 22 27 26 23 21 19 18 17 16 16 16
26 17 12 10 9 10 11 11 13 15 17 23 26 23 43 36 42 38 37 36 34 33 34 33 33 32 29 21 18 22 24 22 23 27 25 22 21 19 18 17 16 15 15
19 18 15 13 10 8 9 14 15 15 15 23 27 28 30 43 40 38 39 37 37 35 35 34 31 34 26 17 21 22 23 22 22 26 25 22 21 19 17 16 16 15 14
20 18 15 11 7 8 11 10 13 15 10 23 26 26 34 39 42 38 41 37 38 39 39 31 30 31 21 16 17 10 22 22 19 25 26 22 21 19 18 16 15 15 14
20 17 11 10 9 10 10 13 13 14 10 18 25 34 28 40 42 40 43 39 39 40 36 26 29 23 20 19 21 15 23 22 20 21 24 23 21 19 18 17 16 15 14
18 10 8 10 13 12 11 11 13 12 14 14 32 43 29 44 42 43 41 37 39 40 34 29 30 27 22 21 16 16 20 21 18 18 20 22 22 20 19 18 17 17 16
18 14 12 11 12 13 10 10 11 14 17 19 34 39 44 42 42 41 41 37 38 37 31 36 32 29 26 23 19 16 15 21 20 19 17 18 19 20 20 19 19 19 18
19 13 12 12 12 10 11 12 11 13 17 21 30 39 41 39 41 39 44 36 39 36 31 36 32 28 27 25 21 17 17 14 16 16 19 19 18 18 17 20 20 21 22
19 17 15 15 13 12 11 13 17 20 21 27 28 40 41 33 39 41 44 37 41 37 34 34 32 28 26 28 24 17 13 13 17 17 14 19 21 20 19 18 20 23 25
22 18 17 15 13 11 15 13 14 23 26 31 33 37 40 35 31 36 37 34 36 37 37 32 31 28 20 27 26 15 1 6 13 16 19 24 21 19 23 24 24 25 27
23 23 20 18 14 13 13 14 16 24 23 24 31 31 39 33 32 36 37 37 34 34 35 32 32 28 24 25 30 8 3 3 5 16 24 23 25 25 26 27 28 29 30
24 23 22 21 19 15 14 17 22 20 21 22 31 35 35 35 32 35 35 38 38 31 31 30 28 29 29 26 20 16 8 12 3 1 9 26 28 27 28 30 31 33 34
27 24 23 22 23 19 16 17 21 17 18 26 27 36 38 35 33 32 36 35 34 33 30 29 29 28 24 23 26 19 16 10 11 3 2 7 21 30 31 30 32 34 34
28 26 23 23 24 24 22 19 22 24 25 25 26 29 31 31 33 27 25 27 31 30 28 29 27 23 24 21 25 18 14 8 12 7 3 7 11 16 21 26 33 36 37

GFSSE_925_spd_102.txt.gz
Wind_Speed
11 11 10 10 13 20 24 26 24 21 19 21 27 31 36 38 37 35 34 32 31 28 28 29 27 26 27 28 28 29 30 30 29 28 27 26 26 26 27 29 29 29 28
14 14 12 10 13 17 23 24 24 23 18 19 22 28 32 33 34 34 32 30 29 27 26 27 27 27 29 29 30 31 32 32 30 30 28 27 26 27 28 29 29 28 27
15 16 15 13 13 16 20 22 23 24 23 22 22 24 28 30 31 30 30 30 30 28 26 27 27 28 29 31 32 34 33 33 32 31 29 27 26 24 26 27 25 23 23
17 18 17 16 15 16 19 22 21 22 25 26 24 24 26 29 29 28 28 30 29 28 26 26 26 28 33 33 33 33 33 32 31 30 29 25 24 22 21 22 23 21 21
17 16 16 17 17 19 20 21 22 21 22 23 25 25 27 27 27 27 29 29 28 25 25 26 27 33 34 33 31 30 30 31 29 27 26 25 22 20 19 19 21 20 21
17 15 16 16 16 19 22 22 22 21 23 22 27 28 25 25 24 26 27 28 27 25 25 27 30 35 32 35 29 29 26 27 26 25 23 20 20 20 17 19 20 20 20
20 18 17 15 14 18 22 24 25 24 24 26 25 27 23 19 12 20 26 27 27 27 24 26 34 32 35 32 30 29 27 24 24 23 22 18 19 20 19 19 19 21 20
17 16 16 15 14 17 20 23 24 24 26 26 26 25 28 15 13 13 22 24 25 23 24 28 30 35 37 32 29 26 26 22 25 26 23 20 20 20 19 20 21 21 21
13 15 15 15 15 16 19 23 26 27 29 30 30 30 17 29 18 17 20 23 25 25 25 29 29 36 34 31 24 24 24 22 25 26 24 21 20 20 20 20 20 20 20
13 14 15 15 14 15 18 21 26 28 30 32 33 29 35 30 18 23 21 25 25 24 29 30 35 33 32 22 18 25 23 23 24 27 25 22 21 21 21 21 20 20 19
17 16 14 14 14 14 15 19 23 28 31 31 30 33 26 31 35 30 24 26 26 23 30 32 35 31 25 18 24 31 28 25 26 27 26 23 22 21 20 20 20 19 18
21 19 18 15 15 15 14 16 24 27 30 35 39 38 33 36 36 34 28 27 28 26 31 33 34 29 25 28 35 32 27 26 26 29 27 25 22 22 20 19 19 18 19
26 21 18 16 15 14 16 16 21 28 32 30 31 31 35 40 32 28 27 30 30 29 33 33 34 30 27 27 31 29 27 27 28 28 27 24 23 21 20 19 18 17 17
24 21 16 15 15 16 15 17 21 28 30 30 32 31 33 36 35 32 42 35 33 33 36 34 34 31 26 21 28 29 28 26 26 29 27 24 23 21 20 19 17 16 16
25 20 17 16 16 17 16 16 20 26 26 29 33 36 38 34 41 35 38 40 37 36 36 36 35 31 25 20 29 29 25 24 26 28 27 23 22 21 19 18 17 16 15
26 23 20 17 15 15 15 16 21 21 20 25 30 38 43 37 40 41 41 42 39 38 39 38 37 30 22 21 29 24 22 24 25 25 25 23 22 20 19 17 16 15 14
27 26 21 17 14 12 14 13 15 18 18 22 30 38 38 43 41 42 45 43 42 40 40 38 34 28 22 23 25 25 24 23 24 24 23 23 21 20 19 17 16 15 14
28 26 21 16 13 12 13 13 13 17 17 19 17 23 41 42 44 44 45 44 43 42 40 38 38 27 25 23 23 26 25 22 22 22 22 22 21 21 19 17 17 16 16
29 25 19 18 15 15 12 10 13 13 15 15 29 25 33 38 48 45 46 45 44 45 39 39 39 31 27 24 23 26 23 21 19 20 21 22 22 20 19 19 18 18 18
27 22 19 18 15 16 12 10 9 12 10 10 32 33 30 39 44 45 44 46 47 46 39 35 36 30 28 24 25 25 23 21 20 20 19 20 21 20 19 19 19 20 19
25 23 23 21 18 16 15 13 12 10 14 12 26 37 40 45 39 41 42 48 42 44 39 40 37 33 27 24 22 20 20 21 22 23 20 20 22 21 20 19 21 21 20
28 25 24 22 19 17 15 15 14 18 13 16 17 41 38 43 39 39 38 42 43 38 38 41 37 34 30 29 20 11 3 5 19 22 22 22 23 23 24 22 23 23 23
27 27 27 24 20 16 15 14 14 17 16 18 19 31 42 44 41 37 43 42 42 41 39 43 39 32 25 30 32 9 3 4 6 15 20 22 24 26 26 25 26 26 27
24 26 25 23 20 18 14 16 17 18 15 16 22 25 38 42 40 42 44 44 43 42 40 44 41 35 31 27 30 15 8 6 3 2 12 23 22 26 27 28 28 30 31
27 28 25 23 21 19 15 16 20 17 17 24 22 31 32 35 40 41 42 37 41 40 42 43 40 35 34 32 30 23 10 7 6 3 2 5 18 29 31 32 32 33 34
26 24 25 25 23 19 17 16 19 20 22 24 26 28 29 30 34 38 41 43 40 37 35 36 34 35 33 31 30 26 13 7 6 4 1 5 9 16 24 29 31 32 35

GFSSE_925_spd_105.txt.gz
Wind_Speed
14 14 16 15 17 21 21 22 24 26 27 29 36 36 37 37 37 35 33 32 31 29 27 27 28 25 21 25 28 29 29 30 27 26 25 24 25 24 25 26 26 26 25
14 15 15 16 18 22 22 20 22 26 29 29 34 35 38 39 36 35 34 32 29 28 26 27 28 26 25 26 29 29 30 29 27 26 25 24 23 23 24 25 25 25 25
16 17 18 18 19 23 24 21 20 23 27 30 32 37 33 36 36 34 32 29 28 27 26 27 27 27 27 29 31 31 30 30 31 29 26 24 24 24 24 23 24 23 23
18 18 20 20 20 23 26 26 24 22 24 30 32 36 36 33 33 31 29 27 26 26 25 26 26 25 29 30 31 32 32 31 30 30 30 25 23 22 22 21 22 20 21
21 20 21 20 20 22 27 27 27 25 21 25 30 35 33 31 29 26 26 25 25 24 24 25 26 26 30 31 31 32 31 29 28 28 29 26 23 20 21 19 18 18 17
23 22 21 21 20 20 23 25 26 25 25 24 25 25 31 29 24 22 25 27 25 23 23 24 27 31 32 32 32 31 29 29 28 27 25 24 21 19 16 17 18 18 18
23 22 20 19 19 19 21 22 22 24 26 26 24 22 17 23 21 16 23 23 23 23 23 25 30 33 32 31 29 30 29 27 27 25 24 22 19 17 17 17 18 18 19
22 21 20 20 19 19 21 22 23 24 24 28 31 37 28 19 22 14 18 21 22 19 21 26 30 32 30 30 29 27 26 25 24 23 21 21 19 19 18 19 18 18 18
18 19 20 21 19 19 20 22 23 23 23 26 32 35 33 24 30 24 13 12 19 19 20 27 29 31 30 29 27 25 22 20 23 24 22 21 19 19 19 19 19 19 19
18 18 20 20 18 18 19 21 23 24 25 26 30 36 37 38 30 29 28 13 15 20 22 28 29 31 29 27 26 23 21 24 23 23 21 20 19 19 19 19 19 18 19
18 19 19 19 17 17 18 19 23 25 25 30 32 34 28 25 32 34 32 26 22 24 26 29 33 30 27 23 25 25 24 22 22 25 23 20 19 19 19 19 19 19 18
22 20 19 19 17 18 18 19 22 24 27 31 36 43 31 36 37 33 29 22 26 26 29 31 33 28 23 24 30 27 23 22 25 24 24 22 20 19 19 19 18 18 17
26 23 22 20 19 19 19 19 19 21 26 29 37 37 38 38 40 37 23 28 30 27 32 33 30 25 23 28 33 28 24 22 23 24 24 22 21 19 19 18 18 17 18
25 26 24 22 21 20 19 20 20 24 28 32 34 39 41 40 36 31 28 33 35 31 36 36 31 24 25 32 32 29 24 24 25 25 24 21 21 19 17 17 16 16 16
26 27 26 23 22 20 20 21 21 24 31 31 34 38 37 36 36 33 33 38 37 33 37 38 32 26 27 31 29 25 26 26 25 26 25 22 20 18 17 16 15 15 14
28 29 25 22 20 20 21 20 21 24 28 31 29 36 33 40 40 40 33 34 36 35 39 40 35 30 25 30 28 27 25 23 25 27 26 24 22 19 16 14 14 13 13
31 30 26 23 21 20 20 20 20 21 24 26 32 35 38 42 40 36 35 37 41 40 41 40 36 30 23 28 30 26 24 24 27 28 26 24 21 19 16 14 13 13 12
30 32 27 24 21 19 19 17 18 18 23 26 27 32 39 41 40 36 37 37 44 43 43 41 36 30 27 33 31 27 25 25 26 26 25 23 21 17 16 14 13 12 11
33 32 28 24 21 19 15 15 14 16 20 23 24 26 37 42 36 41 38 41 46 42 44 44 39 33 31 34 29 27 26 25 24 25 24 21 19 17 17 16 14 13 12
33 31 28 24 21 18 15 13 12 14 18 21 25 25 29 32 38 41 37 43 43 44 43 40 40 30 31 29 28 25 24 22 22 22 22 19 18 17 17 17 16 16 15
30 30 27 25 22 22 19 16 13 12 17 11 18 25 21 32 42 39 38 44 44 43 42 43 41 31 28 28 28 20 18 19 21 21 22 21 20 18 18 17 18 18 18
28 30 27 26 24 23 21 18 13 15 10 13 12 27 26 38 41 41 39 43 44 37 37 42 39 31 29 32 19 14 3 5 16 20 21 21 21 20 19 18 20 20 20
25 30 28 27 25 23 20 16 13 10 13 11 9 26 35 42 40 37 40 42 41 38 40 40 41 33 27 31 33 9 3 3 5 14 24 23 23 23 23 22 23 23 24
24 28 28 28 25 21 20 18 17 12 8 10 15 18 37 42 39 34 38 39 38 35 36 41 39 36 30 26 29 14 6 9 3 1 11 25 28 26 26 26 27 28 27
25 28 28 28 25 22 20 18 17 14 16 15 14 23 34 37 42 37 37 36 35 33 38 40 38 37 33 29 26 15 10 9 8 3 3 6 19 26 26 27 28 29 28
22 25 28 27 25 23 20 17 17 16 16 17 21 21 25 32 34 37 35 36 36 37 38 40 40 38 36 34 31 26 15 6 5 4 1 3 8 14 24 29 31 30 30

GFSSE_925_spd_108.txt.gz
Wind_Speed
14 13 14 15 17 17 20 20 21 21 28 32 32 33 33 33 34 34 32 30 29 29 32 30 29 24 21 21 26 27 27 25 27 27 27 26 25 25 25 25 25 25 25
12 17 19 19 20 20 23 22 21 21 26 30 33 33 33 34 33 31 30 29 27 28 28 29 26 22 22 24 26 28 26 25 26 26 27 26 25 24 25 24 24 24 23
15 18 18 19 21 23 25 25 23 22 25 30 33 35 34 29 30 29 28 26 26 25 25 25 23 24 25 29 28 28 25 25 25 25 25 25 25 24 24 24 24 24 22
17 18 19 20 22 24 24 25 25 26 27 30 30 34 34 37 29 27 26 24 23 24 25 24 25 24 27 30 30 29 27 27 27 27 25 25 25 24 25 23 23 23 23
21 19 18 20 22 24 23 24 27 27 25 27 29 26 30 30 31 27 24 24 22 23 23 24 24 25 29 32 31 30 30 29 28 25 26 26 25 23 23 22 21 22 22
23 20 19 19 22 23 22 23 25 27 27 28 27 26 27 28 27 23 22 22 22 19 21 23 25 27 29 30 30 30 30 26 25 26 27 25 23 20 21 19 17 16 17
25 21 20 19 20 21 22 21 21 21 24 28 26 25 20 20 15 16 18 19 21 19 20 24 27 28 30 29 29 30 28 28 26 25 25 22 21 18 17 18 19 17 18
23 21 21 20 19 19 20 21 21 21 23 25 30 32 25 20 25 13 14 16 17 18 21 24 29 31 29 29 29 27 28 27 26 24 23 21 18 18 19 18 19 18 17
19 19 20 20 20 20 20 20 21 22 23 25 28 28 36 34 30 29 18 16 16 18 20 25 29 32 30 28 27 26 26 26 25 24 23 20 17 19 19 17 18 18 18
18 19 20 21 21 20 21 21 21 23 24 30 35 32 27 27 32 34 25 15 18 18 19 26 29 29 28 28 27 24 23 22 22 21 20 20 19 19 18 18 17 18 17
20 20 20 22 22 21 21 21 21 23 26 30 37 38 40 32 28 26 28 26 25 26 21 27 28 27 26 26 24 21 21 22 22 21 21 20 18 19 19 17 17 17 17
24 23 23 24 23 22 22 21 22 23 24 31 39 39 39 34 30 36 30 26 30 26 26 29 30 28 26 26 23 23 22 21 23 22 22 19 19 19 18 18 17 16 16
27 25 26 25 24 23 23 22 23 23 26 33 39 40 39 38 39 31 28 32 29 27 27 29 31 29 27 26 26 23 20 21 23 24 23 20 19 18 17 16 16 15 15
30 29 27 26 25 24 22 21 21 22 25 33 40 42 41 34 35 35 35 33 33 28 28 31 33 28 26 27 26 24 22 23 21 24 23 22 20 17 17 16 15 15 15
29 29 29 28 26 24 22 20 20 23 24 27 37 45 42 35 35 40 37 34 32 31 32 35 33 29 26 27 28 24 23 21 24 25 24 22 20 19 17 16 15 14 14
33 32 30 29 26 24 23 20 21 22 24 31 35 41 42 38 35 38 31 31 36 34 38 39 34 29 27 28 28 25 23 22 23 25 24 23 21 20 18 17 15 14 13
37 33 32 30 26 25 23 21 20 22 22 28 33 37 40 41 40 38 30 33 37 35 38 40 33 27 27 29 27 25 22 23 22 24 24 23 21 19 18 17 16 14 13
34 31 30 30 27 25 23 21 20 19 21 24 27 30 38 41 41 37 34 32 42 40 42 42 34 28 30 30 29 25 24 22 23 24 23 21 20 19 18 17 16 15 13
36 32 31 31 28 25 22 20 20 20 21 25 26 30 35 36 38 37 35 33 41 41 40 44 37 33 30 29 29 25 23 22 23 23 22 20 20 19 18 17 16 14 13
31 29 32 32 28 23 21 18 19 19 21 23 28 29 30 34 39 41 32 35 39 40 37 40 41 31 29 29 28 23 22 21 21 22 21 21 21 20 19 18 15 13 12
27 31 34 33 27 25 22 22 21 20 20 23 24 24 32 33 39 40 37 40 40 40 40 44 41 34 28 33 28 16 14 16 19 21 22 23 22 20 19 18 15 14 14
19 27 33 31 29 28 23 24 17 19 17 21 16 23 32 29 40 32 42 40 42 38 40 43 39 31 27 35 17 13 2 3 15 20 21 22 21 21 20 18 18 16 16
23 25 29 31 28 29 26 22 14 16 11 15 16 22 29 30 37 40 42 40 40 41 42 43 45 34 25 31 30 10 3 3 4 13 21 21 22 21 20 21 21 19 18
19 22 29 27 21 28 26 23 20 14 9 15 16 16 28 32 37 39 40 39 39 38 40 41 43 34 34 27 31 16 9 12 3 2 11 22 24 24 23 25 23 22 21
23 29 29 24 22 26 25 20 17 13 16 12 18 16 28 36 39 39 39 37 37 38 41 41 44 33 38 31 30 18 13 9 8 4 3 5 20 27 27 28 26 25 25
21 24 25 23 24 24 22 17 18 14 15 14 16 17 25 29 29 39 36 36 35 37 41 43 44 35 38 36 34 24 18 7 6 4 2 3 4 9 20 23 26 25 26

GFSSE_925_spd_111.txt.gz
Wind_Speed
16 11 10 11 14 15 17 18 19 19 23 30 29 28 30 30 30 29 28 28 25 24 25 27 27 24 22 22 26 27 27 26 25 25 25 25 25 25 26 26 24 23 24
15 15 13 14 15 17 18 19 20 20 24 28 28 29 31 31 29 28 27 27 24 24 22 26 26 23 23 27 27 25 26 26 26 26 25 23 23 23 26 26 24 24 24
17 18 16 16 16 16 19 19 19 20 26 27 28 30 31 30 30 28 26 25 24 24 23 23 22 21 22 26 26 25 26 26 26 25 24 21 21 22 23 24 25 24 24
17 19 19 18 16 16 19 19 19 19 24 26 28 29 29 32 33 31 26 24 25 22 21 19 20 22 25 27 26 26 27 27 26 26 22 21 21 22 23 23 23 23 23
19 18 18 15 17 17 19 19 19 18 21 24 27 29 28 27 26 29 26 24 22 22 21 19 20 24 29 28 27 26 27 27 27 23 20 20 20 21 21 22 22 24 24
19 18 17 15 17 18 19 20 19 19 20 26 28 28 27 22 26 22 24 22 19 20 20 21 22 25 28 28 27 26 27 27 24 20 20 21 20 20 22 21 23 23 23
21 19 18 16 17 20 19 21 20 18 22 22 24 25 25 22 7 16 20 19 17 18 18 20 23 27 28 27 27 27 27 24 21 21 20 18 20 20 19 18 17 19 20
20 19 18 17 17 19 20 19 22 20 20 22 25 25 25 25 31 27 24 21 16 15 16 20 24 27 28 27 27 27 23 23 20 19 18 17 19 18 17 18 17 17 18
21 20 20 20 19 19 20 21 22 22 23 24 25 26 28 34 32 29 27 24 21 15 18 22 24 27 27 27 27 26 24 23 19 17 17 16 17 18 18 18 17 18 18
20 20 21 21 21 21 20 21 22 23 25 28 30 32 34 34 33 29 22 19 20 20 22 23 25 27 27 27 26 24 24 21 16 16 14 16 17 18 18 17 18 18 17
19 21 22 22 23 23 22 22 23 25 26 28 33 35 31 33 31 18 19 25 24 24 23 25 27 27 27 25 23 23 23 15 15 13 12 19 20 19 19 18 18 18 18
19 24 24 23 25 24 23 23 24 28 28 31 35 34 36 33 27 22 30 27 25 28 28 28 28 26 25 21 21 20 14 16 14 13 14 17 18 19 18 18 18 18 17
20 21 25 24 25 25 24 23 25 27 30 33 38 39 32 29 29 33 30 25 25 27 27 28 29 29 21 20 18 16 16 17 15 13 16 17 19 19 19 19 18 17 16
21 22 25 26 26 26 24 24 25 26 28 33 40 42 36 30 29 26 32 30 26 26 27 27 33 31 25 20 19 19 17 15 15 15 17 18 19 19 19 18 17 17 16
22 25 29 28 26 28 26 24 24 25 27 30 36 40 35 31 29 28 32 31 28 32 33 35 31 30 23 22 20 18 17 15 16 16 17 19 18 18 17 17 16 16 15
24 29 32 31 29 28 27 26 24 24 23 25 32 39 41 34 33 28 26 25 31 35 36 35 30 31 21 20 19 18 16 15 16 16 16 17 17 17 16 16 14 14 15
28 25 34 34 32 30 27 24 24 24 24 25 29 36 39 40 34 28 28 30 29 29 34 33 27 30 20 18 18 18 17 16 16 18 16 16 16 16 15 14 14 14 14
23 26 27 35 35 32 28 25 23 24 24 24 27 33 41 41 40 36 31 31 31 33 32 30 27 25 21 21 19 17 16 16 16 17 17 16 15 14 15 15 15 15 13
22 23 26 32 33 33 28 25 23 22 22 24 26 33 39 38 37 39 34 31 33 35 30 35 27 26 23 20 19 16 15 15 15 17 17 16 15 15 13 15 15 13 13
18 22 26 32 33 31 28 25 22 19 21 22 25 29 32 35 39 39 34 33 37 36 31 29 30 25 25 23 18 14 13 12 13 15 15 14 15 15 14 13 13 12 14
14 21 25 29 30 31 29 23 19 19 23 23 26 28 28 33 30 36 32 34 36 37 39 38 32 29 22 23 20 12 9 8 11 13 14 16 16 15 14 13 13 12 14
14 20 24 27 30 27 24 23 15 19 22 24 25 24 28 29 31 34 29 41 41 33 33 37 35 27 19 27 18 17 5 5 10 13 15 17 15 14 14 16 16 16 15
16 19 23 27 31 28 22 19 17 17 14 20 24 24 26 30 35 37 39 42 44 40 38 40 37 31 24 26 24 11 5 5 10 12 17 17 16 16 16 18 20 18 18
14 16 20 24 27 26 26 22 22 19 16 16 21 26 21 26 34 36 39 43 43 41 39 38 40 35 30 29 25 9 8 11 5 5 11 17 16 18 18 18 18 20 20
17 20 22 24 24 24 25 26 24 17 16 16 21 20 24 26 32 37 41 39 42 40 41 39 37 33 33 32 27 15 9 7 8 4 6 12 15 19 18 18 20 19 22
14 18 21 24 20 22 23 25 22 18 14 14 19 22 22 27 31 38 40 42 40 39 41 40 41 37 36 31 30 22 17 10 10 5 2 10 12 11 19 21 24 21 21

GFSSE_925_spd_114.txt.gz
Wind_Speed
11 10 9 10 13 15 15 15 16 17 23 26 25 24 24 25 25 25 26 24 24 23 22 20 20 19 18 17 19 23 24 24 24 24 24 23 22 24 25 24 23 22 24
17 12 10 9 12 15 14 15 15 16 21 26 25 24 26 26 26 26 26 25 24 25 22 22 20 18 18 22 24 24 24 24 25 25 25 24 23 23 22 22 22 23 25
16 14 12 11 12 13 14 14 14 15 18 25 26 25 28 27 28 29 28 25 23 21 22 22 21 21 22 22 24 25 25 25 24 24 22 19 20 22 22 22 23 23 23
16 14 14 14 12 13 14 14 13 14 18 22 26 26 28 27 30 27 28 27 24 23 22 21 20 21 23 23 24 25 25 25 26 23 18 19 19 20 22 22 21 22 23
14 14 15 16 13 14 16 15 15 15 19 21 26 26 25 27 25 25 22 27 25 24 23 20 19 21 25 24 25 26 26 26 23 17 17 18 18 19 20 20 19 21 20
14 13 15 14 14 16 17 17 16 16 19 19 22 26 26 23 20 17 19 23 24 22 18 17 20 25 26 26 25 25 26 25 18 15 17 18 18 20 21 20 21 21 21
14 13 14 14 13 17 19 18 17 17 19 22 21 25 22 25 6 11 10 16 20 19 20 18 20 27 26 26 24 24 25 22 15 15 17 17 18 20 21 21 20 20 20
15 14 14 15 14 18 19 20 19 19 20 20 21 22 28 25 27 18 22 20 20 21 21 21 21 25 24 24 24 25 24 17 13 15 16 17 19 18 18 18 18 18 18
15 15 15 15 15 18 19 20 22 20 19 21 23 26 26 25 26 23 26 23 21 20 20 22 24 24 24 23 24 25 22 18 14 13 14 16 18 17 18 16 17 18 17
15 15 15 16 16 16 17 21 21 21 20 21 25 27 27 24 24 31 27 25 23 22 23 25 23 24 24 24 25 23 21 19 13 13 11 15 16 16 16 16 16 16 16
16 16 16 17 17 16 17 19 21 21 21 23 24 26 25 22 25 25 27 26 23 23 24 23 24 25 26 25 24 22 19 12 12 10 10 15 15 15 15 15 16 16 16
19 19 18 19 19 18 17 17 20 19 20 21 21 22 22 23 26 26 25 24 25 24 23 22 23 26 24 21 20 20 14 11 9 8 11 17 15 15 16 17 17 17 16
19 19 20 20 20 21 18 19 18 20 20 21 22 24 24 23 25 24 18 22 22 22 18 20 24 24 21 20 19 15 10 10 9 9 12 15 16 15 16 16 17 16 16
18 21 21 22 21 22 21 20 19 26 23 26 27 25 25 23 24 24 21 23 21 23 21 20 24 23 20 18 18 14 12 11 10 10 14 16 16 16 16 15 16 15 15
18 21 24 24 24 23 27 22 17 23 26 29 30 31 28 25 25 24 22 22 22 27 25 24 23 21 20 18 17 15 14 11 11 11 14 17 15 15 16 15 15 15 15
18 23 24 27 26 24 23 22 21 20 22 27 30 30 29 30 28 25 24 23 24 27 28 28 25 23 20 18 17 16 14 12 13 12 15 16 16 15 15 15 15 14 15
18 21 26 28 27 26 25 22 20 20 20 24 29 29 29 33 32 28 25 25 26 24 28 27 27 24 21 19 18 17 14 12 13 14 15 17 15 15 14 14 14 14 14
16 21 24 27 29 28 26 23 21 18 19 22 24 27 30 32 36 34 26 25 23 29 26 31 29 25 23 22 20 18 15 13 13 15 14 16 15 15 14 14 14 14 14
17 19 25 29 31 30 26 22 20 18 20 23 26 27 27 32 35 30 29 25 27 30 28 29 30 27 25 23 20 19 16 14 14 15 15 15 16 15 15 17 16 15 15
14 17 23 28 29 29 26 23 19 16 17 22 24 27 28 31 35 34 31 25 32 31 27 30 30 28 27 26 21 19 17 14 15 16 17 16 15 14 13 13 15 14 17
10 15 23 26 29 31 30 28 22 21 21 20 20 25 28 32 36 38 37 34 36 32 30 31 31 30 27 25 24 20 15 12 13 16 16 16 16 16 14 13 13 13 14
12 15 22 25 29 29 28 26 18 21 20 20 20 24 26 30 35 34 35 37 36 33 30 32 32 30 28 29 27 22 8 10 14 16 17 17 17 16 15 15 15 14 12
15 18 21 25 29 27 26 23 18 17 13 19 19 22 27 30 32 35 35 35 43 38 33 35 34 34 28 29 28 22 10 9 19 18 17 18 17 17 16 17 17 16 15
15 15 18 23 28 28 28 25 24 22 17 18 20 19 23 25 25 32 35 35 38 42 39 38 37 35 32 30 28 23 18 15 12 8 17 19 18 18 19 18 17 17 15
13 15 18 23 26 26 28 23 22 18 14 14 19 20 21 20 26 30 35 38 42 43 40 42 37 34 33 31 29 23 19 18 18 11 10 18 20 21 20 20 16 15 15
13 15 19 23 25 24 25 21 20 19 16 15 17 17 17 18 24 29 31 38 41 43 42 45 43 37 33 32 29 27 25 20 16 13 8 17 20 21 19 17 16 15 14

GFSSE_925_spd_117.txt.gz
Wind_Speed
9 10 10 11 12 13 12 12 12 14 18 19 19 18 19 19 20 21 22 22 21 21 20 20 19 17 14 13 13 14 16 18 20 22 23 23 24 24 23 21 21 21 24
15 12 12 12 13 13 13 13 12 13 17 20 20 19 21 22 22 22 23 22 22 22 21 19 19 18 17 17 18 20 22 23 24 24 24 25 24 22 20 21 23 22 24
15 13 12 12 12 13 13 12 11 13 16 21 22 21 22 22 22 25 24 24 23 22 21 21 18 18 20 20 21 22 22 23 23 22 23 20 19 21 22 21 24 23 23
14 13 12 11 8 10 11 11 11 12 14 19 22 22 22 23 24 25 24 24 24 22 23 22 19 19 22 23 23 23 23 24 24 21 18 18 18 19 21 21 22 21 21
14 13 14 11 9 9 11 11 10 11 14 16 18 21 20 20 18 5 13 11 17 23 23 22 22 21 22 23 24 24 23 23 21 17 18 17 18 18 19 20 19 20 20
14 12 12 11 9 9 11 12 12 11 14 16 16 17 17 11 11 15 12 13 16 20 22 19 20 23 23 23 23 24 24 21 15 16 17 18 17 19 19 20 21 20 20
15 14 12 12 10 10 12 13 13 12 13 15 14 18 17 19 20 19 20 18 9 8 17 20 20 23 23 24 23 23 23 18 15 16 17 16 18 20 20 19 20 20 20
16 14 14 15 12 11 14 14 13 13 14 14 15 18 23 27 18 10 22 19 15 15 17 20 22 26 24 23 24 22 20 11 15 17 17 18 20 20 19 19 18 18 18
15 15 15 15 14 12 14 15 15 14 13 14 16 20 23 26 12 19 20 20 19 20 21 20 24 27 26 23 22 22 17 13 14 16 18 18 18 18 18 17 17 17 17
15 16 16 16 16 14 13 16 17 15 14 15 17 20 22 24 17 14 17 22 20 21 20 22 23 26 25 24 22 23 17 14 12 13 14 18 17 16 16 16 16 16 16
16 17 17 17 17 15 14 14 16 17 16 15 17 21 22 15 22 15 21 23 23 21 20 20 21 23 23 24 24 22 18 11 14 12 16 18 15 15 15 14 14 15 13
18 19 19 19 18 17 16 15 16 15 15 16 16 18 19 16 16 20 21 21 21 18 14 17 19 22 21 20 21 19 13 10 12 12 15 16 16 14 13 15 15 15 14
19 19 21 21 20 19 19 17 16 17 17 17 20 20 21 17 19 20 18 18 19 15 15 21 20 20 19 19 18 16 12 14 14 16 16 14 14 15 15 15 15 15 14
19 21 21 22 22 21 19 20 18 19 17 17 19 20 18 19 20 22 21 19 16 19 19 20 19 18 18 17 17 16 13 13 11 13 15 15 17 17 16 15 15 14 13
17 20 22 23 24 23 23 20 20 19 19 19 18 19 21 20 21 22 20 19 20 24 23 20 17 19 18 17 19 17 14 10 11 14 13 16 16 17 15 15 13 13 14
17 19 22 25 26 24 26 23 21 18 19 20 20 20 22 22 23 23 21 18 22 23 23 23 19 21 20 20 18 16 15 12 13 10 16 15 15 17 16 15 13 13 13
20 19 23 25 27 27 24 24 22 20 19 20 20 21 22 24 24 23 22 21 19 20 27 26 24 21 21 19 19 18 16 13 14 13 15 15 15 15 15 14 13 13 12
21 24 24 25 28 29 25 26 24 22 22 21 20 21 23 23 23 23 22 22 19 21 27 28 29 23 20 20 20 19 16 15 15 15 15 17 17 16 15 15 14 14 14
21 20 20 26 27 30 27 26 24 21 23 22 20 21 22 23 23 24 24 21 23 25 27 29 27 29 25 25 19 20 17 17 16 16 18 17 17 16 16 16 16 15 15
20 18 18 23 28 29 26 26 25 22 24 21 20 20 21 21 22 23 24 23 24 27 26 28 29 33 28 26 23 20 18 18 16 17 17 18 18 19 15 17 17 15 17
19 17 19 22 28 29 30 29 25 24 22 19 18 18 20 20 22 23 23 22 27 28 29 32 30 34 27 25 26 22 15 18 14 18 19 18 18 17 17 16 15 14 16
18 19 20 23 27 30 30 26 23 24 20 18 18 19 19 22 21 22 22 23 29 28 33 37 31 27 25 24 23 20 7 8 11 19 20 20 18 19 18 15 16 14 14
22 22 21 23 27 28 28 25 24 20 13 16 16 18 20 21 27 28 29 27 29 28 34 36 35 33 26 28 28 21 10 7 18 18 20 21 20 19 19 18 17 15 14
22 20 20 22 26 27 30 28 29 24 18 19 18 20 20 22 22 27 32 33 32 35 33 39 34 36 33 28 29 26 23 19 12 11 21 20 19 20 19 18 19 17 16
20 18 19 21 26 27 30 30 28 25 20 17 18 17 19 20 23 28 32 35 32 37 40 41 38 33 35 32 30 30 25 15 29 16 12 19 22 22 21 19 16 17 16
11 13 14 19 24 26 28 29 28 25 20 18 18 17 18 20 21 26 31 33 36 36 33 45 46 40 32 32 32 30 24 17 19 16 10 16 19 22 22 21 19 16 16

GFSSE_925_spd_120.txt.gz
Wind_Speed
19 17 13 12 11 10 10 10 10 11 11 10 10 9 8 9 10 12 13 15 16 17 17 17 16 16 16 17 18 16 16 18 21 23 26 27 27 26 25 24 24 26 26
23 16 12 11 10 9 9 10 10 10 12 12 12 10 9 11 12 14 16 16 16 16 17 17 15 12 12 15 17 17 19 22 23 25 28 28 26 24 23 25 24 27 27
21 16 13 11 10 10 9 9 9 10 12 12 12 11 11 12 12 13 15 17 16 17 17 17 15 16 15 16 19 22 23 24 24 27 25 23 23 24 23 24 26 26 25
18 17 14 12 8 8 8 8 8 8 9 11 12 12 11 12 9 7 8 9 13 16 17 17 16 16 19 18 21 24 25 26 26 23 23 22 21 22 24 25 24 23 22
17 15 14 12 8 6 7 8 7 7 7 8 10 11 10 11 12 9 11 2 4 7 16 17 18 19 20 21 21 24 27 25 21 21 23 21 21 21 22 22 21 21 22
18 16 13 11 9 6 6 8 7 7 9 9 8 10 12 16 13 16 24 13 8 18 9 15 18 21 20 21 22 24 25 21 23 21 22 20 20 22 22 21 22 21 23
20 18 13 12 10 8 7 7 7 8 10 9 8 11 17 16 13 10 20 27 11 4 10 11 16 21 21 21 22 24 22 19 19 21 22 19 22 22 22 22 21 22 23
20 15 14 14 12 9 9 9 9 9 10 11 11 14 18 15 13 19 21 21 22 21 15 17 19 22 22 22 22 23 19 13 19 23 19 20 21 22 21 21 20 20 20
15 12 12 15 14 11 10 12 11 10 10 12 13 16 19 18 17 19 21 21 23 18 17 19 19 22 22 23 22 20 13 18 20 23 22 22 20 20 20 19 19 18 18
15 11 12 13 15 14 13 14 13 12 11 12 14 15 18 23 14 13 23 20 19 20 18 15 16 22 23 22 23 21 15 16 19 23 20 21 19 19 18 18 18 17 17
19 18 15 15 14 15 13 16 16 14 13 13 14 16 18 23 18 22 16 20 21 18 18 15 16 18 21 21 22 20 19 16 19 19 19 20 18 17 17 17 17 16 16
21 22 21 20 17 16 13 13 18 18 17 16 15 19 19 18 16 16 15 20 21 20 17 18 17 17 19 21 21 20 14 16 16 18 20 19 17 16 16 16 16 16 16
23 24 24 24 22 20 16 15 17 17 17 16 16 17 21 18 15 16 19 20 19 20 18 17 18 17 18 20 21 19 15 17 18 19 21 19 17 16 14 16 16 16 16
28 28 26 26 25 24 21 19 17 20 19 20 21 20 19 19 19 20 22 22 22 22 19 20 20 20 21 21 20 18 16 17 20 23 23 18 18 18 18 18 17 16 16
27 34 32 28 28 27 24 21 19 21 21 21 22 25 23 21 19 21 23 22 24 22 21 21 20 21 22 21 21 19 16 17 23 21 23 20 21 19 18 18 18 16 15
15 30 35 33 30 29 28 23 24 21 22 20 19 23 26 23 19 24 23 23 22 22 26 23 22 25 24 22 20 19 14 12 25 24 24 21 20 19 19 17 17 16 15
22 21 34 34 31 30 32 27 24 21 21 24 22 19 22 25 24 24 24 21 22 21 26 24 21 19 22 22 24 19 18 14 19 21 23 23 20 19 18 18 15 16 15
28 31 33 33 34 32 31 32 25 21 23 24 24 22 22 25 25 24 23 23 22 26 26 28 25 23 18 19 24 19 18 17 18 24 19 23 22 20 18 16 16 16 15
28 24 33 34 35 35 30 29 29 25 23 22 24 26 23 24 25 23 22 23 25 27 29 30 27 27 25 22 19 23 18 20 20 19 23 24 22 20 20 19 17 16 16
25 26 34 34 34 36 30 27 26 24 27 22 25 24 23 24 23 25 23 24 25 28 28 30 30 29 29 26 18 24 22 19 22 19 27 25 25 21 20 22 20 18 18
18 23 21 27 31 32 30 28 26 25 26 21 24 23 23 24 25 25 25 26 26 31 31 33 32 33 28 30 18 22 15 21 23 21 24 28 23 24 24 23 24 20 19
21 21 20 19 27 31 30 28 25 24 22 25 24 25 23 23 26 26 25 28 28 29 31 32 32 25 27 25 17 18 4 7 14 22 19 23 25 27 29 24 18 19 17
19 18 19 17 20 29 27 26 23 23 16 24 25 25 26 25 24 26 24 27 29 31 32 35 35 31 27 29 26 15 4 4 8 15 24 24 26 24 27 23 19 18 22
23 23 20 19 21 26 30 28 27 23 18 19 21 23 24 26 26 25 27 25 31 31 32 35 38 38 31 25 25 22 19 18 9 4 23 25 23 25 21 22 20 19 16
12 27 25 23 22 25 32 29 28 23 23 19 19 24 24 23 25 28 30 30 30 30 31 34 33 36 36 30 22 28 24 21 31 10 8 14 23 27 22 21 22 23 17
4 20 21 18 20 30 30 27 30 28 24 23 24 24 26 26 25 26 27 28 31 31 32 35 36 39 37 34 29 29 29 16 23 21 10 17 17 24 24 25 17 24 23